IZ1CQN-4 Weather Reports


Display with metric or nautical units.
time (UTC)temp
F
wind
direction
speed
MPH
gust
MPH
rain 1hr
in
rain 24hr
in
rain mn
in
humidity
%
barometer
mb
20240527071004 63 3 2.0 6.0 0.00 0.44 0.44 86 1019.3
20240527070905 63 1 2.0 6.0 0.00 0.44 0.44 87 1019.2
20240527070805 63 1 2.0 6.0 0.00 0.44 0.44 87 1019.3
20240527070703 63 3 2.0 6.0 0.00 0.44 0.44 88 1019.1
20240527070624 63 5 2.0 6.0 0.00 0.44 0.44 88 1019.2
20240527070503 63 12 2.0 6.0 0.00 0.44 0.44 88 1019.2
20240527070403 63 14 3.0 6.0 0.00 0.44 0.44 88 1019.4
20240527070304 63 13 2.0 6.0 0.00 0.44 0.44 88 1019.2
20240527070203 62 12 2.0 6.0 0.00 0.44 0.44 89 1019.3
20240527070103 62 15 3.0 7.0 0.00 0.44 0.44 89 1019.2
20240527070003 62 18 3.0 7.0 0.00 0.44 0.44 89 1019.3
20240527065903 62 22 3.0 7.0 0.00 0.44 0.44 89 1019.2
20240527065804 62 26 1.0 7.0 0.00 0.44 0.44 89 1019.3
20240527065703 62 26 1.0 7.0 0.00 0.44 0.44 89 1019.3
20240527065603 62 24 3.0 7.0 0.00 0.44 0.44 89 1019.3
20240527065503 62 24 3.0 7.0 0.00 0.44 0.44 89 1019.1
20240527065404 62 24 2.0 7.0 0.00 0.44 0.44 89 1019.2
20240527065303 62 25 2.0 7.0 0.00 0.44 0.44 89 1019.3
20240527065203 62 25 2.0 7.0 0.00 0.44 0.44 89 1019.2
20240527065104 62 25 2.0 7.0 0.00 0.44 0.44 89 1019.2
20240527065004 62 26 2.0 4.0 0.00 0.44 0.44 89 1019.4
20240527064904 62 25 2.0 4.0 0.00 0.44 0.44 89 1019.2
20240527064826 62 23 2.0 4.0 0.00 0.44 0.44 89 1019.3
20240527064705 62 21 2.0 4.0 0.00 0.44 0.44 89 1019.3
20240527064624 62 22 2.0 4.0 0.00 0.44 0.44 89 1019.3
20240527064503 62 22 2.0 4.0 0.01 0.44 0.44 89 1019.2
20240527064403 62 22 2.0 4.0 0.01 0.44 0.44 89 1019.2
20240527064303 62 19 2.0 4.0 0.01 0.44 0.44 89 1019.1
20240527064204 62 18 2.0 4.0 0.01 0.44 0.44 89 1019.0
20240527064103 62 17 2.0 4.0 0.02 0.44 0.44 89 1019.2
20240527064003 62 17 2.0 4.0 0.02 0.44 0.44 89 1019.3
20240527063903 62 17 2.0 4.0 0.02 0.44 0.44 89 1019.2
20240527063803 62 17 1.0 4.0 0.02 0.44 0.44 89 1019.2
20240527063703 62 20 1.0 4.0 0.02 0.44 0.44 89 1019.3
20240527063604 62 17 1.0 4.0 0.02 0.44 0.44 89 1019.1
20240527063503 61 19 1.0 4.0 0.04 0.44 0.44 90 1019.3
20240527063404 61 22 1.0 4.0 0.04 0.44 0.44 90 1019.3
20240527063305 61 23 1.0 4.0 0.04 0.44 0.44 90 1019.2
20240527063203 61 24 2.0 4.0 0.05 0.44 0.44 90 1019.2
20240527063104 61 26 1.0 4.0 0.05 0.44 0.44 90 1019.1
20240527063004 61 27 2.0 4.0 0.05 0.44 0.44 90 1019.2
20240527062904 61 28 2.0 4.0 0.05 0.44 0.44 90 1019.2
20240527062803 61 28 2.0 4.0 0.06 0.44 0.44 90 1019.2
20240527062724 61 29 2.0 4.0 0.06 0.44 0.44 90 1019.0
20240527062603 61 31 2.0 4.0 0.06 0.44 0.44 90 1019.1
20240527062503 61 30 2.0 4.0 0.06 0.44 0.44 90 1019.0
20240527062424 61 29 2.0 4.0 0.06 0.44 0.44 90 1019.0
20240527062303 61 29 2.0 4.0 0.06 0.44 0.44 90 1019.1
20240527062204 61 29 2.0 4.0 0.06 0.44 0.44 90 1019.2
20240527062103 61 26 1.0 4.0 0.06 0.44 0.44 90 1019.3
20240527062004 61 26 2.0 4.0 0.06 0.44 0.44 90 1019.0
20240527061904 61 24 2.0 4.0 0.06 0.44 0.44 90 1019.2
20240527061803 61 25 1.0 4.0 0.06 0.44 0.44 90 1019.1
20240527061703 61 25 2.0 4.0 0.06 0.44 0.44 90 1019.0
20240527061625 61 24 3.0 6.0 0.06 0.44 0.44 90 1019.0
20240527061503 61 23 3.0 6.0 0.06 0.44 0.44 90 1019.1
20240527061403 61 22 2.0 6.0 0.06 0.44 0.44 90 1019.0
20240527061303 61 24 2.0 6.0 0.06 0.44 0.44 90 1019.1
20240527061224 61 24 2.0 6.0 0.06 0.44 0.44 90 1019.1
20240527061103 61 26 2.0 6.0 0.07 0.44 0.44 90 1019.0
20240527061003 61 26 3.0 6.0 0.08 0.44 0.44 90 1019.0
20240527060903 61 26 2.0 6.0 0.08 0.44 0.44 90 1019.1
20240527060804 61 25 2.0 6.0 0.08 0.44 0.44 90 1019.0
20240527060703 61 25 2.0 6.0 0.08 0.44 0.44 90 1019.0
20240527060604 61 26 3.0 4.0 0.09 0.44 0.44 90 1019.1
20240527060524 61 26 3.0 4.0 0.09 0.44 0.44 90 1019.1
20240527060403 61 28 2.0 4.0 0.09 0.44 0.44 90 1018.9
20240527060304 61 27 2.0 4.0 0.12 0.44 0.44 90 1019.2
20240527060203 61 27 2.0 4.0 0.12 0.44 0.44 91 1019.2
20240527060103 61 25 2.0 4.0 0.13 0.44 0.44 91 1019.1
20240527060024 61 25 2.0 4.0 0.13 0.44 0.44 91 1019.0
20240527055924 61 25 1.0 4.0 0.13 0.44 0.44 91 1019.0
20240527055803 61 25 1.0 4.0 0.13 0.44 0.44 91 1019.0
20240527055703 61 24 2.0 4.0 0.13 0.44 0.44 91 1019.2
20240527055603 61 22 2.0 4.0 0.13 0.44 0.44 91 1019.0
20240527055503 61 22 2.0 4.0 0.13 0.44 0.44 91 1019.1
20240527055404 61 22 2.0 4.0 0.13 0.44 0.44 91 1019.1
20240527055325 61 22 2.0 4.0 0.13 0.44 0.44 91 1019.1
20240527055203 61 22 1.0 4.0 0.13 0.44 0.44 91 1019.3
20240527055103 61 22 2.0 4.0 0.13 0.44 0.44 91 1019.2
20240527055003 61 22 1.0 4.0 0.13 0.44 0.44 91 1019.0
20240527054903 61 22 1.0 4.0 0.14 0.44 0.44 91 1019.1
20240527054803 61 22 1.0 4.0 0.14 0.44 0.44 91 1019.2
20240527054704 61 22 1.0 4.0 0.14 0.44 0.44 91 1019.1
20240527054603 61 22 1.0 2.0 0.14 0.44 0.44 91 1019.1
20240527054503 61 22 1.0 2.0 0.13 0.43 0.43 91 1019.1
20240527054403 61 22 1.0 2.0 0.14 0.43 0.43 91 1019.1
20240527054324 61 22 2.0 2.0 0.14 0.43 0.43 91 1019.1
20240527054203 61 25 2.0 2.0 0.15 0.43 0.43 91 1019.0
20240527054103 61 28 1.0 2.0 0.18 0.41 0.41 91 1018.7
20240527054003 61 30 1.0 2.0 0.20 0.41 0.41 91 1019.0
20240527053903 61 31 1.0 4.0 0.22 0.41 0.41 90 1019.0
20240527053824 61 32 1.0 4.0 0.25 0.41 0.41 90 1018.9
20240527053703 61 35 1.0 4.0 0.27 0.41 0.41 90 1019.1
20240527053604 61 37 1.0 4.0 0.27 0.41 0.41 90 1019.0
20240527053503 61 37 1.0 4.0 0.27 0.40 0.40 90 1019.0
20240527053404 61 39 1.0 4.0 0.28 0.40 0.40 90 1019.1
20240527053303 61 39 0.0 4.0 0.30 0.40 0.40 90 1018.9
20240527053203 61 37 1.0 4.0 0.28 0.39 0.39 90 1018.9
20240527053103 61 35 1.0 4.0 0.28 0.39 0.39 90 1019.1
20240527053004 61 32 1.0 4.0 0.30 0.39 0.39 90 1018.8
20240527052904 61 29 2.0 4.0 0.30 0.39 0.39 90 1019.0
20240527052804 61 26 2.0 4.0 0.28 0.38 0.38 90 1018.8
20240527052703 61 21 2.0 4.0 0.30 0.38 0.38 90 1018.8
20240527052603 61 18 2.0 4.0 0.30 0.38 0.38 90 1018.9
20240527052503 61 17 2.0 4.0 0.30 0.38 0.38 90 1018.9
20240527052403 61 16 2.0 4.0 0.31 0.38 0.38 90 1018.7
20240527052304 61 15 1.0 4.0 0.31 0.38 0.38 90 1018.8
20240527052203 61 15 2.0 4.0 0.32 0.38 0.38 90 1019.0
20240527052104 61 15 2.0 4.0 0.33 0.38 0.38 90 1018.8
20240527052004 61 15 2.0 4.0 0.33 0.38 0.38 90 1018.9
20240527051924 61 17 2.0 4.0 0.33 0.38 0.38 91 1018.8
20240527051803 61 24 2.0 4.0 0.33 0.38 0.38 91 1018.9
20240527051703 61 26 2.0 4.0 0.33 0.38 0.38 91 1018.9
20240527051603 61 26 2.0 4.0 0.33 0.38 0.38 91 1018.8
20240527051505 61 27 2.0 4.0 0.33 0.38 0.38 91 1018.9
20240527051403 61 27 2.0 4.0 0.33 0.38 0.38 91 1018.8
20240527051303 61 27 2.0 4.0 0.33 0.38 0.38 91 1018.8
20240527051203 61 27 2.0 4.0 0.33 0.38 0.38 91 1018.7
20240527051104 61 28 2.0 4.0 0.32 0.37 0.37 91 1018.8
20240527051004 61 31 2.0 4.0 0.31 0.35 0.35 91 1018.8
20240527050903 61 30 2.0 4.0 0.31 0.35 0.35 91 1018.6
20240527050824 61 29 2.0 4.0 0.31 0.35 0.35 91 1018.7
20240527050703 61 26 2.0 4.0 0.31 0.35 0.35 91 1018.8
20240527050603 61 23 1.0 2.0 0.30 0.34 0.34 91 1018.8
20240527050504 61 20 1.0 2.0 0.30 0.34 0.34 91 1018.8
20240527050403 61 24 1.0 2.0 0.30 0.34 0.34 91 1018.8
20240527050303 61 24 1.0 2.0 0.27 0.32 0.32 91 1019.0
20240527050224 61 24 1.0 2.0 0.27 0.32 0.32 91 1018.9
20240527050103 61 26 1.0 2.0 0.26 0.31 0.31 91 1018.9
20240527050024 61 25 1.0 4.0 0.26 0.31 0.31 91 1018.9
20240527045903 61 26 1.0 4.0 0.26 0.31 0.31 91 1018.9
20240527045803 61 29 1.0 4.0 0.26 0.31 0.31 91 1018.6
20240527045703 61 32 1.0 4.0 0.26 0.31 0.31 91 1018.7
20240527045603 61 34 1.0 4.0 0.26 0.31 0.31 91 1018.8
20240527045524 61 34 1.0 4.0 0.26 0.31 0.31 91 1018.6
20240527045403 61 32 1.0 4.0 0.27 0.31 0.31 91 1018.6
20240527045303 61 29 2.0 4.0 0.27 0.31 0.31 91 1018.6
20240527045203 61 29 2.0 4.0 0.27 0.31 0.31 91 1018.6
20240527045103 61 29 2.0 4.0 0.27 0.31 0.31 91 1018.5
20240527045004 61 29 2.0 4.0 0.27 0.31 0.31 91 1018.6
20240527044903 61 26 2.0 4.0 0.26 0.30 0.30 91 1018.8
20240527044803 61 23 2.0 4.0 0.27 0.30 0.30 91 1018.5
20240527044724 61 21 2.0 6.0 0.27 0.30 0.30 91 1018.5
20240527044624 61 17 1.0 6.0 0.27 0.30 0.30 91 1018.6
20240527044503 61 7 2.0 8.0 0.27 0.30 0.30 91 1018.5
20240527044403 61 9 2.0 8.0 0.26 0.28 0.28 91 1018.2
20240527044303 61 10 2.0 8.0 0.26 0.28 0.28 91 1018.2
20240527044203 61 8 2.0 8.0 0.25 0.27 0.27 90 1018.0
20240527044103 61 11 2.0 8.0 0.21 0.24 0.24 90 1018.6
20240527044024 61 13 2.0 8.0 0.19 0.21 0.21 90 1018.4
20240527043904 61 15 2.0 8.0 0.17 0.19 0.19 90 1018.3
20240527043824 61 15 3.0 8.0 0.14 0.17 0.18 90 1018.2
20240527043703 61 15 3.0 8.0 0.12 0.14 0.14 90 1018.4
20240527043604 61 16 3.0 8.0 0.12 0.14 0.14 90 1018.2
20240527043503 61 21 4.0 8.0 0.11 0.13 0.13 89 1018.1
20240527043403 61 21 4.0 8.0 0.09 0.12 0.12 89 1018.3
20240527043303 61 21 4.0 8.0 0.08 0.11 0.11 89 1018.2
20240527043204 61 26 4.0 8.0 0.08 0.11 0.11 89 1018.2
20240527043103 62 22 4.0 8.0 0.08 0.11 0.11 89 1018.1
20240527043003 62 11 2.0 7.0 0.07 0.09 0.09 89 1018.2
20240527042903 62 6 2.0 7.0 0.07 0.09 0.09 88 1018.2
20240527042824 62 5 2.0 7.0 0.07 0.09 0.09 89 1018.4
20240527042703 62 4 1.0 7.0 0.06 0.08 0.08 88 1018.1
20240527042604 62 6 2.0 7.0 0.06 0.08 0.08 88 1018.1
20240527042503 62 8 2.0 7.0 0.06 0.08 0.08 88 1018.3
20240527042403 62 6 2.0 7.0 0.05 0.07 0.07 88 1018.2
20240527042303 62 5 3.0 7.0 0.05 0.07 0.07 88 1018.2
20240527042203 62 346 4.0 7.0 0.05 0.06 0.06 87 1018.1
20240527042104 62 338 2.0 4.0 0.04 0.05 0.05 87 1018.2
20240527042003 62 343 2.0 6.0 0.04 0.05 0.05 87 1018.3
20240527041903 62 325 2.0 6.0 0.05 0.05 0.05 88 1018.0
20240527041824 62 325 2.0 6.0 0.05 0.05 0.05 88 1018.2
20240527041703 62 327 1.0 6.0 0.05 0.05 0.05 87 1018.2
20240527041603 62 321 2.0 6.0 0.05 0.05 0.05 87 1018.4
20240527041503 62 331 2.0 6.0 0.05 0.05 0.05 87 1018.1
20240527041404 62 337 2.0 6.0 0.05 0.05 0.05 87 1018.2
20240527041303 62 341 2.0 6.0 0.05 0.05 0.05 87 1018.1
20240527041203 62 348 2.0 6.0 0.05 0.05 0.05 87 1018.4
20240527041103 62 357 2.0 6.0 0.05 0.05 0.05 87 1018.2
20240527041024 62 1 2.0 6.0 0.05 0.05 0.05 87 1018.1
20240527040903 62 16 2.0 4.0 0.05 0.05 0.05 87 1018.1
20240527040803 62 19 2.0 4.0 0.05 0.05 0.05 88 1018.2
20240527040703 62 17 1.0 4.0 0.05 0.05 0.05 88 1018.2
20240527040603 62 18 2.0 4.0 0.05 0.05 0.05 88 1018.0
20240527040503 62 22 2.0 4.0 0.05 0.05 0.05 88 1018.0
20240527040403 62 21 2.0 4.0 0.05 0.05 0.05 88 1018.0
20240527040303 62 19 2.0 4.0 0.05 0.05 0.05 87 1018.0
20240527040204 62 19 2.0 4.0 0.05 0.05 0.05 87 1018.1
20240527040103 62 19 2.0 4.0 0.05 0.05 0.05 87 1018.0
20240527040004 62 18 2.0 4.0 0.05 0.05 0.05 87 1018.0
20240527035903 62 18 2.0 6.0 0.05 0.05 0.05 87 1018.0
20240527035824 62 19 2.0 6.0 0.05 0.05 0.05 87 1018.0
20240527035704 62 18 2.0 6.0 0.05 0.05 0.05 87 1018.0
20240527035603 62 20 2.0 6.0 0.05 0.05 0.05 87 1018.1
20240527035504 62 20 2.0 6.0 0.05 0.05 0.05 87 1018.2
20240527035403 62 21 1.0 6.0 0.04 0.04 0.04 87 1018.0
20240527035324 62 21 1.0 6.0 0.04 0.04 0.04 87 1018.0
20240527035203 62 21 2.0 6.0 0.04 0.04 0.04 86 1018.1
20240527035103 62 21 1.0 6.0 0.04 0.04 0.04 86 1018.0
20240527035003 62 20 2.0 6.0 0.04 0.04 0.04 86 1018.1
20240527034924 62 20 2.0 8.0 0.04 0.04 0.04 86 1018.1
20240527034803 62 24 2.0 8.0 0.02 0.02 0.02 86 1018.2
20240527034724 62 23 1.0 8.0 0.02 0.02 0.02 86 1018.1
20240527034603 62 22 2.0 8.0 0.02 0.02 0.02 86 1018.0
20240527034503 62 22 1.0 8.0 0.02 0.02 0.02 86 1018.2
20240527034424 62 22 1.0 8.0 0.02 0.02 0.02 86 1017.8
20240527034303 62 25 1.0 8.0 0.02 0.02 0.02 86 1017.8
20240527034204 62 25 1.0 8.0 0.02 0.02 0.02 86 1017.9
20240527034103 62 24 2.0 8.0 0.02 0.02 0.02 86 1017.8
20240527034003 62 25 2.0 8.0 0.02 0.02 0.02 86 1017.9
20240527033903 62 26 4.0 8.0 0.02 0.02 0.02 86 1017.9
20240527033803 62 22 1.0 6.0 0.02 0.02 0.02 86 1017.9
20240527033704 62 25 1.0 6.0 0.02 0.02 0.02 86 1018.0
20240527033603 62 27 2.0 6.0 0.02 0.02 0.02 86 1017.8
20240527033504 63 26 2.0 6.0 0.02 0.02 0.02 86 1018.1
20240527033403 63 26 3.0 6.0 0.02 0.02 0.02 85 1018.0
20240527033303 63 27 3.0 6.0 0.02 0.02 0.02 85 1017.9
20240527033204 63 20 2.0 6.0 0.02 0.02 0.02 85 1018.0
20240527033105 63 26 2.0 11.0 0.02 0.02 0.02 85 1018.1
20240527033003 63 26 2.0 11.0 0.02 0.02 0.02 85 1018.0
20240527032903 63 29 2.0 11.0 0.02 0.02 0.02 84 1018.0
20240527032804 63 31 2.0 11.0 0.02 0.02 0.02 84 1017.9
20240527032703 63 31 2.0 11.0 0.02 0.02 0.02 84 1017.9
20240527032603 63 33 2.0 11.0 0.02 0.02 0.02 84 1018.1
20240527032504 63 34 3.0 11.0 0.02 0.02 0.02 84 1018.0
20240527032424 63 32 2.0 11.0 0.02 0.02 0.02 83 1017.9
20240527032324 63 29 3.0 11.0 0.02 0.02 0.02 83 1017.8
20240527032225 63 32 3.0 11.0 0.01 0.01 0.01 83 1017.9
20240527032103 64 26 3.0 9.0 0.01 0.01 0.01 82 1018.0
20240527032004 64 26 3.0 9.0 0.01 0.01 0.01 82 1017.9
20240527031903 64 23 3.0 9.0 0.00 0.00 0.00 82 1017.9
20240527031803 64 22 2.0 9.0 0.00 0.00 0.00 81 1017.7
20240527031703 64 21 2.0 9.0 0.00 0.00 0.00 81 1017.7
20240527031603 64 18 2.0 9.0 0.00 0.00 0.00 80 1017.6
20240527031503 64 18 4.0 9.0 0.00 0.00 0.00 80 1017.8
20240527031404 64 21 4.0 9.0 0.00 0.00 0.00 80 1017.9
20240527031303 64 22 5.0 9.0 0.00 0.00 0.00 80 1017.7
20240527031203 64 22 4.0 9.0 0.00 0.00 0.00 80 1017.7
20240527031103 64 25 5.0 9.0 0.00 0.00 0.00 79 1017.7
20240527031003 64 27 4.0 8.0 0.00 0.00 0.00 79 1017.9
20240527030903 64 30 4.0 6.0 0.00 0.00 0.00 79 1017.7
20240527030805 64 28 3.0 6.0 0.00 0.00 0.00 79 1017.8
20240527030703 64 31 2.0 6.0 0.00 0.00 0.00 79 1017.8
20240527030604 64 36 3.0 6.0 0.00 0.00 0.00 78 1017.9
20240527030504 64 34 3.0 6.0 0.00 0.00 0.00 78 1017.8
20240527030403 64 31 4.0 6.0 0.00 0.00 0.00 78 1017.8
20240527030303 64 28 2.0 4.0 0.00 0.00 0.00 78 1018.0
20240527030203 64 22 2.0 6.0 0.00 0.00 0.00 78 1018.0
20240527030103 64 20 2.0 7.0 0.00 0.00 0.00 78 1017.9
20240527030003 64 22 2.0 7.0 0.00 0.00 0.00 78 1017.9
20240527025903 64 24 2.0 7.0 0.00 0.00 0.00 78 1017.8
20240527025803 64 27 2.0 7.0 0.00 0.00 0.00 78 1018.1
20240527025704 64 28 2.0 7.0 0.00 0.00 0.00 77 1018.0
20240527025603 64 28 1.0 7.0 0.00 0.00 0.00 77 1018.0
20240527025504 64 29 1.0 7.0 0.00 0.00 0.00 77 1017.8
20240527025403 64 31 2.0 7.0 0.00 0.00 0.00 77 1017.9
20240527025324 64 31 2.0 7.0 0.00 0.00 0.00 77 1017.9
20240527025203 64 31 2.0 7.0 0.00 0.00 0.00 77 1018.0
20240527025104 64 34 3.0 7.0 0.00 0.00 0.00 77 1017.9
20240527025024 64 34 3.0 7.0 0.00 0.00 0.00 77 1018.0
20240527024903 64 28 2.0 7.0 0.00 0.00 0.00 77 1018.1
20240527024824 65 27 3.0 7.0 0.00 0.00 0.00 77 1018.0
20240527024703 65 25 3.0 6.0 0.00 0.00 0.00 77 1017.8
20240527024603 65 23 2.0 6.0 0.00 0.00 0.00 77 1018.0
20240527024524 65 22 2.0 6.0 0.00 0.00 0.00 77 1018.0
20240527024424 65 19 2.0 6.0 0.00 0.00 0.00 77 1018.0
20240527024303 65 18 2.0 6.0 0.00 0.00 0.00 77 1017.9
20240527024203 65 16 4.0 6.0 0.00 0.00 0.00 77 1017.8
20240527024124 65 16 4.0 6.0 0.00 0.00 0.00 77 1017.8
20240527024004 65 14 3.0 4.0 0.00 0.00 0.00 77 1017.9
20240527023903 65 14 2.0 4.0 0.00 0.00 0.00 77 1018.0
20240527023803 65 13 2.0 4.0 0.00 0.00 0.00 77 1017.9
20240527023703 65 10 3.0 4.0 0.00 0.00 0.00 77 1017.8
20240527023603 65 8 2.0 4.0 0.00 0.00 0.00 77 1017.8
20240527023503 65 7 2.0 4.0 0.00 0.00 0.00 77 1018.0
20240527023403 65 12 2.0 4.0 0.00 0.00 0.00 76 1018.1
20240527023304 65 10 1.0 4.0 0.00 0.00 0.00 76 1017.8
20240527023225 65 10 0.0 4.0 0.00 0.00 0.00 76 1017.8
20240527023103 65 13 1.0 4.0 0.00 0.00 0.00 76 1018.0
20240527023003 65 17 2.0 4.0 0.00 0.00 0.00 76 1017.8
20240527022903 65 18 2.0 4.0 0.00 0.00 0.00 76 1018.0
20240527022803 65 19 2.0 4.0 0.00 0.00 0.00 76 1017.8
20240527022703 65 19 1.0 4.0 0.00 0.00 0.00 76 1018.0
20240527022603 65 18 2.0 4.0 0.00 0.00 0.00 76 1017.9
20240527022503 65 20 2.0 4.0 0.00 0.00 0.00 76 1018.0
20240527022424 65 20 1.0 4.0 0.00 0.00 0.00 76 1017.8
20240527022303 65 25 1.0 4.0 0.00 0.00 0.00 76 1017.8
20240527022203 65 25 2.0 4.0 0.00 0.00 0.00 76 1018.0
20240527022124 65 24 2.0 4.0 0.00 0.00 0.00 76 1018.0
20240527022004 65 19 2.0 4.0 0.00 0.00 0.00 76 1018.1
20240527021904 65 19 2.0 4.0 0.00 0.00 0.00 76 1017.7
20240527021804 65 21 2.0 4.0 0.00 0.00 0.00 76 1017.9
20240527021703 65 23 2.0 4.0 0.00 0.00 0.00 76 1017.9
20240527021603 65 31 2.0 4.0 0.00 0.00 0.00 76 1017.7
20240527021504 65 29 0.0 4.0 0.00 0.00 0.00 76 1017.9
20240527021403 65 25 1.0 4.0 0.00 0.00 0.00 76 1017.9
20240527021303 65 22 2.0 4.0 0.00 0.00 0.00 75 1017.9
20240527021203 65 17 2.0 4.0 0.00 0.00 0.00 75 1017.9
20240527021103 65 21 2.0 4.0 0.00 0.00 0.00 75 1017.8
20240527021025 65 22 1.0 4.0 0.00 0.00 0.00 75 1017.8
20240527020924 65 10 2.0 4.0 0.00 0.00 0.00 75 1017.6
20240527020803 65 358 2.0 4.0 0.00 0.00 0.00 75 1017.8
20240527020703 65 354 2.0 4.0 0.00 0.00 0.00 75 1017.8
20240527020603 65 353 2.0 4.0 0.00 0.00 0.00 75 1017.9
20240527020503 65 353 2.0 4.0 0.00 0.00 0.00 75 1017.9
20240527020403 65 352 1.0 4.0 0.00 0.00 0.00 75 1017.7
20240527020324 65 352 1.0 4.0 0.00 0.00 0.00 75 1017.6
20240527020204 65 358 2.0 4.0 0.00 0.00 0.00 76 1017.8
20240527020104 65 359 2.0 4.0 0.00 0.00 0.00 75 1017.8
20240527020003 65 1 2.0 4.0 0.00 0.00 0.00 75 1017.7
20240527015903 65 5 1.0 4.0 0.00 0.00 0.00 76 1018.0
20240527015803 65 12 2.0 4.0 0.00 0.00 0.00 76 1017.7
20240527015704 65 13 2.0 4.0 0.00 0.00 0.00 76 1017.8
20240527015603 65 15 2.0 4.0 0.00 0.00 0.00 76 1017.8
20240527015503 65 17 2.0 4.0 0.00 0.00 0.00 76 1017.7
20240527015403 65 22 2.0 4.0 0.00 0.00 0.00 76 1017.9
20240527015303 65 23 2.0 4.0 0.00 0.00 0.00 76 1017.9
20240527015203 65 23 2.0 4.0 0.00 0.00 0.00 76 1017.7
20240527015124 65 24 2.0 4.0 0.00 0.00 0.00 76 1017.8
20240527015003 65 22 2.0 4.0 0.00 0.00 0.00 76 1017.8
20240527014903 65 25 2.0 4.0 0.00 0.00 0.00 76 1017.5
20240527014803 65 25 2.0 4.0 0.00 0.00 0.00 76 1017.7
20240527014703 65 25 2.0 4.0 0.00 0.00 0.00 76 1017.7
20240527014603 66 21 2.0 4.0 0.00 0.00 0.00 76 1017.7
20240527014503 66 21 2.0 4.0 0.00 0.00 0.00 75 1018.0
20240527014403 66 21 2.0 4.0 0.00 0.00 0.00 75 1017.8
20240527014303 66 23 2.0 4.0 0.00 0.00 0.00 75 1017.8
20240527014203 66 25 2.0 4.0 0.00 0.00 0.00 75 1017.9
20240527014103 66 24 2.0 4.0 0.00 0.00 0.00 75 1017.8
20240527014003 66 23 2.0 4.0 0.00 0.00 0.00 75 1017.9
20240527013903 66 21 2.0 4.0 0.00 0.00 0.00 75 1017.9
20240527013803 66 20 2.0 4.0 0.00 0.00 0.00 75 1018.1
20240527013703 65 20 2.0 4.0 0.00 0.00 0.00 75 1017.7
20240527013603 65 21 2.0 4.0 0.00 0.00 0.00 75 1017.8
20240527013524 65 21 2.0 4.0 0.00 0.00 0.00 75 1017.9
20240527013403 65 19 2.0 4.0 0.00 0.00 0.00 75 1017.8
20240527013303 65 16 2.0 4.0 0.00 0.00 0.00 75 1017.9
20240527013203 65 16 2.0 4.0 0.00 0.00 0.00 75 1018.1
20240527013103 65 14 2.0 4.0 0.00 0.00 0.00 75 1018.0
20240527013004 65 16 2.0 4.0 0.00 0.00 0.00 75 1017.9
20240527012904 65 16 2.0 4.0 0.00 0.00 0.00 75 1017.7
20240527012826 65 15 2.0 4.0 0.00 0.00 0.00 75 1017.8
20240527012704 66 12 2.0 4.0 0.00 0.00 0.00 75 1017.8
20240527012626 66 13 2.0 4.0 0.00 0.00 0.00 75 1017.8
20240527012504 66 14 2.0 4.0 0.00 0.00 0.00 75 1018.0
20240527012405 66 16 1.0 4.0 0.00 0.00 0.00 75 1017.8
20240527012305 66 18 2.0 4.0 0.00 0.00 0.00 75 1017.7
20240527012205 66 20 2.0 4.0 0.00 0.00 0.00 75 1017.8
20240527012104 66 20 2.0 4.0 0.00 0.00 0.00 75 1018.0
20240527012006 66 21 1.0 4.0 0.00 0.00 0.00 75 1017.7
20240527011905 66 21 2.0 4.0 0.00 0.00 0.00 75 1017.9
20240527011804 66 24 2.0 4.0 0.00 0.00 0.00 75 1018.0
20240527011704 66 25 1.0 4.0 0.00 0.00 0.00 75 1017.8
20240527011625 66 25 1.0 4.0 0.00 0.00 0.00 75 1017.9
20240527011504 66 25 2.0 4.0 0.00 0.00 0.00 75 1017.9
20240527011425 66 25 2.0 4.0 0.00 0.00 0.00 75 1018.1
20240527011304 66 25 2.0 4.0 0.00 0.00 0.00 75 1018.0
20240527011204 66 23 2.0 4.0 0.00 0.00 0.00 75 1018.0
20240527011105 66 24 2.0 4.0 0.00 0.00 0.00 75 1017.9
20240527011005 66 26 1.0 4.0 0.00 0.00 0.00 75 1017.8
20240527010925 66 26 1.0 4.0 0.00 0.00 0.00 75 1017.8
20240527010805 66 26 2.0 4.0 0.00 0.00 0.00 75 1018.0
20240527010705 66 26 1.0 4.0 0.00 0.00 0.00 75 1018.0
20240527010604 66 26 2.0 4.0 0.00 0.00 0.00 75 1018.0
20240527010506 66 26 2.0 4.0 0.00 0.00 0.00 75 1017.9
20240527010404 66 25 2.0 4.0 0.00 0.00 0.00 75 1018.1
20240527010304 66 25 2.0 4.0 0.00 0.00 0.00 74 1018.0
20240527010204 66 24 2.0 4.0 0.00 0.00 0.00 74 1017.9
20240527010104 66 25 2.0 4.0 0.00 0.00 0.00 74 1018.0
20240527010004 66 23 2.0 4.0 0.00 0.00 0.00 74 1018.0
20240527005904 66 21 2.0 4.0 0.00 0.00 0.00 74 1018.1
20240527005827 66 21 2.0 4.0 0.00 0.00 0.00 74 1018.1
20240527005705 66 21 2.0 4.0 0.00 0.00 0.00 74 1017.9
20240527005605 66 21 2.0 4.0 0.00 0.00 0.00 74 1017.9
20240527005527 66 18 1.0 4.0 0.00 0.00 0.00 74 1017.8
20240527005405 66 20 1.0 4.0 0.00 0.00 0.00 74 1017.9
20240527005304 66 20 2.0 4.0 0.00 0.00 0.00 74 1018.0
20240527005204 66 21 2.0 4.0 0.00 0.00 0.00 74 1018.2
20240527005104 66 22 1.0 4.0 0.00 0.00 0.00 74 1017.9
20240527005004 66 24 2.0 4.0 0.00 0.00 0.00 74 1018.0
20240527004904 66 24 2.0 4.0 0.00 0.00 0.00 73 1018.0
20240527004804 66 24 2.0 4.0 0.00 0.00 0.00 73 1017.8
20240527004704 66 24 1.0 4.0 0.00 0.00 0.00 74 1017.8
20240527004604 66 24 2.0 4.0 0.00 0.00 0.00 74 1017.8
20240527004504 66 28 2.0 4.0 0.00 0.00 0.00 74 1017.8
20240527004404 66 27 2.0 4.0 0.00 0.00 0.00 74 1017.7
20240527004304 66 26 1.0 4.0 0.00 0.00 0.00 74 1017.7
20240527004204 66 25 2.0 4.0 0.00 0.00 0.00 74 1017.7
20240527004125 66 25 2.0 4.0 0.00 0.00 0.00 74 1017.7
20240527004025 66 24 2.0 4.0 0.00 0.00 0.00 74 1017.7
20240527003905 66 24 2.0 4.0 0.00 0.00 0.00 73 1017.9
20240527003805 66 24 1.0 4.0 0.00 0.00 0.00 73 1017.9
20240527003705 66 23 2.0 4.0 0.00 0.00 0.00 73 1017.8
20240527003605 66 23 2.0 4.0 0.00 0.00 0.00 73 1017.7
20240527003505 66 23 1.0 4.0 0.00 0.00 0.00 73 1017.8
20240527003405 66 24 2.0 4.0 0.00 0.00 0.00 73 1017.9
20240527003304 66 25 2.0 4.0 0.00 0.00 0.00 73 1017.7
20240527003205 66 25 2.0 4.0 0.00 0.00 0.00 73 1017.8
20240527003104 66 24 2.0 4.0 0.00 0.00 0.00 73 1017.8
20240527003025 66 25 2.0 4.0 0.00 0.00 0.00 73 1017.7
20240527002906 66 25 2.0 4.0 0.00 0.00 0.00 73 1017.8
20240527002804 66 25 2.0 4.0 0.00 0.00 0.00 73 1017.7
20240527002704 66 27 2.0 4.0 0.00 0.00 0.00 73 1017.8
20240527002605 66 26 2.0 4.0 0.00 0.00 0.00 73 1017.8
20240527002504 66 25 2.0 4.0 0.00 0.00 0.00 73 1017.8
20240527002404 67 22 2.0 4.0 0.00 0.00 0.00 73 1017.6
20240527002304 67 28 2.0 6.0 0.00 0.00 0.00 73 1017.9
20240527002204 67 30 3.0 6.0 0.00 0.00 0.00 72 1017.8
20240527002104 67 30 2.0 6.0 0.00 0.00 0.00 73 1017.8
20240527002004 67 27 2.0 6.0 0.00 0.00 0.00 72 1017.5
20240527001904 67 27 2.0 6.0 0.00 0.00 0.00 72 1017.6
20240527001804 67 27 2.0 6.0 0.00 0.00 0.00 72 1017.7
20240527001705 67 26 0.0 6.0 0.00 0.00 0.00 73 1017.8
20240527001605 67 26 1.0 6.0 0.00 0.00 0.00 73 1017.7
20240527001505 67 27 1.0 6.0 0.00 0.00 0.00 73 1017.9
20240527001404 67 28 3.0 6.0 0.00 0.00 0.00 73 1017.8
20240527001304 67 25 3.0 6.0 0.00 0.00 0.00 73 1017.8
20240527001204 67 22 3.0 4.0 0.00 0.00 0.00 73 1017.7
20240527001104 67 22 2.0 4.0 0.00 0.00 0.00 72 1017.7
20240527001004 67 22 2.0 4.0 0.00 0.00 0.00 72 1017.6
20240527000904 67 22 3.0 4.0 0.00 0.00 0.00 72 1017.7
20240527000825 67 22 2.0 4.0 0.00 0.00 0.00 72 1017.7
20240527000704 66 26 2.0 4.0 0.00 0.00 0.00 73 1017.9
20240527000604 66 28 2.0 4.0 0.00 0.00 0.00 73 1017.7
20240527000505 66 29 2.0 4.0 0.00 0.00 0.00 73 1017.7
20240527000404 66 30 2.0 4.0 0.00 0.00 0.00 73 1017.9
20240527000305 66 30 2.0 4.0 0.00 0.00 0.00 73 1017.7
20240527000204 66 29 2.0 4.0 0.00 0.00 0.00 73 1017.8
20240527000104 66 29 2.0 4.0 0.00 0.00 0.00 73 1017.9
20240527000025 66 29 2.0 4.0 0.00 0.00 0.00 73 1017.8
20240526235905 66 30 2.0 4.0 0.00 0.00 0.00 73 1017.9
20240526235805 66 31 2.0 4.0 0.00 0.00 0.00 74 1017.8
20240526235704 66 29 2.0 4.0 0.00 0.00 0.00 74 1017.8
20240526235604 66 26 2.0 4.0 0.00 0.00 0.00 74 1017.8
20240526235504 66 26 2.0 4.0 0.00 0.00 0.00 74 1017.6
20240526235404 66 26 2.0 4.0 0.00 0.00 0.00 74 1017.8
20240526235305 66 26 2.0 4.0 0.00 0.00 0.00 74 1017.7
20240526235204 67 26 2.0 4.0 0.00 0.00 0.00 73 1018.0
20240526235104 67 28 2.0 4.0 0.00 0.00 0.00 73 1017.8
20240526235025 66 29 1.0 4.0 0.00 0.00 0.00 73 1018.0
20240526234904 66 30 1.0 4.0 0.00 0.00 0.00 73 1018.0
20240526234804 66 30 1.0 4.0 0.00 0.00 0.00 73 1018.0
20240526234704 66 31 2.0 4.0 0.00 0.00 0.00 73 1018.0
20240526234604 66 31 2.0 4.0 0.00 0.00 0.00 74 1017.8
20240526234504 66 31 2.0 4.0 0.00 0.00 0.00 73 1018.0
20240526234405 66 28 2.0 4.0 0.00 0.00 0.00 73 1018.0
20240526234306 67 28 2.0 4.0 0.00 0.00 0.00 73 1017.9
20240526234225 67 28 2.0 4.0 0.00 0.00 0.00 73 1017.9
20240526234104 67 26 1.0 4.0 0.00 0.00 0.00 73 1018.0
20240526234025 67 25 2.0 4.0 0.00 0.00 0.00 73 1017.9
20240526233904 67 24 2.0 4.0 0.00 0.00 0.00 73 1017.8
20240526233804 67 24 2.0 4.0 0.00 0.00 0.00 73 1018.0
20240526233704 67 22 1.0 4.0 0.00 0.00 0.00 73 1017.6
20240526233604 67 24 2.0 4.0 0.00 0.00 0.00 73 1017.7
20240526233504 67 24 2.0 4.0 0.00 0.00 0.00 72 1017.9
20240526233425 67 24 2.0 4.0 0.00 0.00 0.00 72 1017.7
20240526233304 67 24 2.0 4.0 0.00 0.00 0.00 72 1017.8
20240526233226 67 24 2.0 4.0 0.00 0.00 0.00 72 1017.8
20240526233104 67 26 2.0 4.0 0.00 0.00 0.00 72 1018.0
20240526233004 67 25 2.0 4.0 0.00 0.00 0.00 72 1018.0
20240526232904 67 26 2.0 4.0 0.00 0.00 0.00 72 1017.8
20240526232804 67 24 2.0 4.0 0.00 0.00 0.00 72 1017.9
20240526232725 67 24 2.0 4.0 0.00 0.00 0.00 72 1017.8
20240526232604 67 22 2.0 2.0 0.00 0.00 0.00 72 1018.0
20240526232504 67 21 2.0 2.0 0.00 0.00 0.00 72 1018.0
20240526232404 67 20 1.0 2.0 0.00 0.00 0.00 72 1017.6
20240526232305 67 21 1.0 2.0 0.00 0.00 0.00 72 1017.8
20240526232204 67 22 1.0 2.0 0.00 0.00 0.00 72 1017.8
20240526232104 67 22 2.0 2.0 0.00 0.00 0.00 72 1017.7
20240526232005 67 22 1.0 2.0 0.00 0.00 0.00 73 1017.9
20240526231904 67 22 1.0 2.0 0.00 0.00 0.00 73 1017.6
20240526231804 67 22 2.0 2.0 0.00 0.00 0.00 73 1017.6
20240526231704 67 23 2.0 2.0 0.00 0.00 0.00 72 1017.7
20240526231625 67 25 2.0 2.0 0.00 0.00 0.00 72 1017.7
20240526231504 67 27 2.0 2.0 0.00 0.00 0.00 72 1017.8
20240526231404 67 27 2.0 2.0 0.00 0.00 0.00 72 1017.7
20240526231325 67 27 2.0 2.0 0.00 0.00 0.00 72 1017.7
20240526231204 67 24 2.0 2.0 0.00 0.00 0.00 72 1017.8
20240526231106 67 24 2.0 2.0 0.00 0.00 0.00 72 1017.6
20240526231005 67 24 2.0 2.0 0.00 0.00 0.00 72 1017.5
20240526230926 67 24 2.0 2.0 0.00 0.00 0.00 72 1017.5
20240526230826 68 23 2.0 2.0 0.00 0.00 0.00 71 1017.4
20240526230725 68 22 1.0 2.0 0.00 0.00 0.00 71 1017.9
20240526230626 68 20 2.0 2.0 0.00 0.00 0.00 71 1017.6
20240526230505 68 16 1.0 2.0 0.00 0.00 0.00 70 1017.6
20240526230425 68 16 1.0 2.0 0.00 0.00 0.00 70 1017.7
20240526230304 68 15 1.0 2.0 0.00 0.00 0.00 70 1017.8
20240526230205 68 16 1.0 2.0 0.00 0.00 0.00 70 1017.7
20240526230104 68 16 1.0 2.0 0.00 0.00 0.00 70 1017.7
20240526230004 68 16 2.0 2.0 0.00 0.00 0.00 70 1017.6
20240526225926 68 16 1.0 2.0 0.00 0.00 0.00 70 1017.9
20240526225804 68 18 0.0 2.0 0.00 0.00 0.00 70 1017.9
20240526225705 68 18 1.0 2.0 0.00 0.00 0.00 70 1017.7
20240526225604 68 19 1.0 2.0 0.00 0.00 0.00 70 1017.9
20240526225505 68 20 1.0 2.0 0.00 0.00 0.00 70 1017.6
20240526225406 68 20 1.0 2.0 0.00 0.00 0.00 70 1017.6
20240526225305 68 22 1.0 2.0 0.00 0.00 0.00 70 1017.6
20240526225205 68 22 1.0 2.0 0.00 0.00 0.00 70 1017.7
20240526225104 68 22 1.0 2.0 0.00 0.00 0.00 70 1017.7
20240526225004 68 21 2.0 2.0 0.00 0.00 0.00 70 1017.8
20240526224904 68 21 2.0 2.0 0.00 0.00 0.00 70 1017.7
20240526224805 68 21 1.0 2.0 0.00 0.00 0.00 70 1017.5
20240526224704 68 20 1.0 2.0 0.00 0.00 0.00 69 1017.8
20240526224604 68 19 1.0 2.0 0.00 0.00 0.00 69 1017.5
20240526224504 68 19 1.0 2.0 0.00 0.00 0.00 69 1017.6
20240526224404 68 19 1.0 2.0 0.00 0.00 0.00 69 1017.5
20240526224304 68 19 1.0 2.0 0.00 0.00 0.00 68 1017.5
20240526224204 68 18 0.0 2.0 0.00 0.00 0.00 68 1017.8
20240526224104 68 18 0.0 2.0 0.00 0.00 0.00 68 1017.6
20240526224004 68 19 0.0 2.0 0.00 0.00 0.00 68 1017.6
20240526223904 68 20 1.0 2.0 0.00 0.00 0.00 68 1017.8
20240526223805 68 20 0.0 2.0 0.00 0.00 0.00 68 1017.5
20240526223704 68 20 0.0 2.0 0.00 0.00 0.00 68 1017.6
20240526223604 68 21 0.0 2.0 0.00 0.00 0.00 68 1017.6
20240526223504 68 22 0.0 2.0 0.00 0.00 0.00 68 1017.8
20240526223404 68 22 0.0 2.0 0.00 0.00 0.00 68 1017.8
20240526223304 68 22 1.0 2.0 0.00 0.00 0.00 68 1017.6
20240526223204 68 22 1.0 4.0 0.00 0.00 0.00 68 1017.7
20240526223126 68 22 0.0 4.0 0.00 0.00 0.00 69 1017.6
20240526223006 67 23 0.0 4.0 0.00 0.00 0.00 69 1017.7
20240526222904 67 24 1.0 4.0 0.00 0.00 0.00 69 1017.6
20240526222805 67 24 1.0 4.0 0.00 0.00 0.00 70 1017.8
20240526222704 67 24 1.0 4.0 0.00 0.00 0.00 70 1017.8
20240526222604 67 24 2.0 4.0 0.00 0.00 0.00 70 1017.7
20240526222504 67 24 2.0 4.0 0.00 0.00 0.00 70 1017.6
20240526222404 67 24 2.0 4.0 0.00 0.00 0.00 70 1017.5
20240526222306 68 24 2.0 4.0 0.00 0.00 0.00 70 1017.4
20240526222204 68 27 2.0 4.0 0.00 0.00 0.00 70 1017.6
20240526222104 68 27 2.0 2.0 0.00 0.00 0.00 69 1017.7
20240526222004 68 27 2.0 2.0 0.00 0.00 0.00 69 1017.5
20240526221904 68 25 2.0 4.0 0.00 0.00 0.00 69 1017.7
20240526221804 68 26 2.0 4.0 0.00 0.00 0.00 69 1017.4
20240526221705 68 26 2.0 4.0 0.00 0.00 0.00 69 1017.7
20240526221604 68 26 2.0 4.0 0.00 0.00 0.00 69 1017.7
20240526221505 68 26 2.0 4.0 0.00 0.00 0.00 69 1017.7
20240526221404 68 26 2.0 4.0 0.00 0.00 0.00 69 1017.5
20240526221304 68 26 2.0 4.0 0.00 0.00 0.00 69 1017.7
20240526221204 68 23 2.0 4.0 0.00 0.00 0.00 69 1017.7
20240526221104 68 22 2.0 4.0 0.00 0.00 0.00 69 1017.5
20240526221005 68 22 2.0 4.0 0.00 0.00 0.00 69 1017.5
20240526220904 67 22 1.0 2.0 0.00 0.00 0.00 69 1017.7
20240526220804 67 22 2.0 2.0 0.00 0.00 0.00 69 1017.6
20240526220704 67 22 2.0 2.0 0.00 0.00 0.00 70 1017.7
20240526220604 67 22 2.0 2.0 0.00 0.00 0.00 70 1017.6
20240526220504 67 22 2.0 2.0 0.00 0.00 0.00 70 1017.6
20240526220404 67 22 2.0 2.0 0.00 0.00 0.00 70 1017.5
20240526220304 67 22 2.0 2.0 0.00 0.00 0.00 70 1017.6
20240526220204 67 22 1.0 2.0 0.00 0.00 0.00 70 1017.6
20240526220125 67 22 1.0 2.0 0.00 0.00 0.00 70 1017.6
20240526220005 67 22 2.0 2.0 0.00 0.00 0.00 70 1017.5
20240526215904 67 24 2.0 2.0 0.00 0.00 0.00 70 1017.6
20240526215804 67 24 2.0 2.0 0.00 0.00 0.00 70 1017.8
20240526215704 67 24 2.0 2.0 0.00 0.00 0.00 71 1017.6
20240526215604 67 24 2.0 2.0 0.00 0.00 0.00 71 1017.8
20240526215504 67 24 2.0 2.0 0.00 0.00 0.00 71 1017.5
20240526215404 67 24 2.0 2.0 0.00 0.00 0.00 71 1017.5
20240526215306 67 24 2.0 2.0 0.00 0.00 0.00 71 1017.6
20240526215205 67 24 2.0 2.0 0.00 0.00 0.00 71 1017.4
20240526215105 67 24 2.0 2.0 0.00 0.00 0.00 71 1017.7
20240526215004 67 24 2.0 2.0 0.00 0.00 0.00 71 1017.6
20240526214926 67 23 2.0 2.0 0.00 0.00 0.00 71 1017.6
20240526214805 67 22 1.0 2.0 0.00 0.00 0.00 71 1017.7
20240526214704 67 22 1.0 2.0 0.00 0.00 0.00 71 1017.5
20240526214604 67 22 1.0 2.0 0.00 0.00 0.00 71 1017.3
20240526214504 67 22 1.0 2.0 0.00 0.00 0.00 70 1017.4
20240526214425 67 22 1.0 2.0 0.00 0.00 0.00 70 1017.7
20240526214304 67 22 1.0 2.0 0.00 0.00 0.00 70 1017.6
20240526214205 67 22 1.0 2.0 0.00 0.00 0.00 70 1017.6
20240526214104 67 22 1.0 2.0 0.00 0.00 0.00 70 1017.5
20240526214004 67 22 0.0 2.0 0.00 0.00 0.00 71 1017.6
20240526213905 67 22 0.0 2.0 0.00 0.00 0.00 71 1017.6
20240526213804 67 22 0.0 2.0 0.00 0.00 0.00 70 1017.5
20240526213704 67 22 0.0 2.0 0.00 0.00 0.00 70 1017.4
20240526213604 67 22 0.0 2.0 0.00 0.00 0.00 70 1017.6
20240526213504 67 22 0.0 2.0 0.00 0.00 0.00 70 1017.5
20240526213425 67 22 0.0 2.0 0.00 0.00 0.00 70 1017.6
20240526213304 67 22 0.0 2.0 0.00 0.00 0.00 70 1017.7
20240526213204 67 22 0.0 2.0 0.00 0.00 0.00 70 1017.7
20240526213104 67 22 0.0 2.0 0.00 0.00 0.00 70 1017.6
20240526213005 67 22 0.0 2.0 0.00 0.00 0.00 71 1017.7
20240526212904 67 22 0.0 2.0 0.00 0.00 0.00 71 1017.6
20240526212804 67 22 0.0 2.0 0.00 0.00 0.00 70 1017.5
20240526212705 67 22 0.0 2.0 0.00 0.00 0.00 71 1017.7
20240526212626 67 22 0.0 2.0 0.00 0.00 0.00 71 1017.6
20240526212526 67 22 0.0 2.0 0.00 0.00 0.00 71 1017.4
20240526212404 66 22 1.0 2.0 0.00 0.00 0.00 71 1017.6
20240526212304 66 22 0.0 2.0 0.00 0.00 0.00 72 1017.7
20240526212204 67 22 0.0 2.0 0.00 0.00 0.00 72 1017.6
20240526212104 67 22 0.0 2.0 0.00 0.00 0.00 72 1017.6
20240526212004 67 22 0.0 2.0 0.00 0.00 0.00 72 1017.7
20240526211905 67 22 1.0 2.0 0.00 0.00 0.00 72 1017.5
20240526211804 67 22 0.0 2.0 0.00 0.00 0.00 72 1017.5
20240526211704 67 22 0.0 2.0 0.00 0.00 0.00 72 1017.7
20240526211604 67 22 0.0 2.0 0.00 0.00 0.00 72 1017.7
20240526211504 67 22 0.0 2.0 0.00 0.00 0.00 71 1017.5
20240526211404 67 22 0.0 2.0 0.00 0.00 0.00 71 1017.6
20240526211304 67 22 0.0 2.0 0.00 0.00 0.00 71 1017.7
20240526211205 67 22 0.0 2.0 0.00 0.00 0.00 71 1017.4
20240526211104 67 22 1.0 2.0 0.00 0.00 0.00 71 1017.6
20240526211005 67 22 1.0 2.0 0.00 0.00 0.00 71 1017.7
20240526210925 67 22 1.0 2.0 0.00 0.00 0.00 71 1017.7
20240526210826 67 22 2.0 2.0 0.00 0.00 0.00 71 1017.6
20240526210704 67 22 2.0 2.0 0.00 0.00 0.00 71 1017.8
20240526210604 67 22 0.0 2.0 0.00 0.00 0.00 71 1017.6
20240526210505 67 22 0.0 2.0 0.00 0.00 0.00 71 1017.5
20240526210404 67 0 0.0 0.0 0.00 0.00 0.00 71 1017.5
20240526210304 67 0 0.0 0.0 0.00 0.00 0.00 71 1017.5
20240526210204 67 22 0.0 2.0 0.00 0.00 0.00 71 1017.2
20240526210125 67 22 0.0 2.0 0.00 0.00 0.00 71 1017.2
20240526210004 67 22 0.0 2.0 0.00 0.00 0.00 71 1017.5
20240526205905 67 22 0.0 2.0 0.00 0.00 0.00 71 1017.4
20240526205805 67 22 0.0 2.0 0.00 0.00 0.00 71 1017.6
20240526205704 67 22 0.0 2.0 0.00 0.00 0.00 71 1017.7
20240526205605 67 22 0.0 2.0 0.00 0.00 0.00 71 1017.3
20240526205525 67 22 0.0 2.0 0.00 0.00 0.00 71 1017.6
20240526205425 67 22 0.0 2.0 0.00 0.00 0.00 71 1017.5
20240526205304 67 22 0.0 2.0 0.00 0.00 0.00 71 1017.5
20240526205205 67 22 0.0 2.0 0.00 0.00 0.00 70 1017.5
20240526205104 67 22 1.0 2.0 0.00 0.00 0.00 70 1017.5
20240526205004 67 22 1.0 2.0 0.00 0.00 0.00 70 1017.7
20240526204925 67 22 1.0 2.0 0.00 0.00 0.00 70 1017.7
20240526204805 67 22 0.0 2.0 0.00 0.00 0.00 70 1017.5
20240526204704 67 22 0.0 2.0 0.00 0.00 0.00 70 1017.4
20240526204604 67 22 0.0 2.0 0.00 0.00 0.00 70 1017.6
20240526204504 67 22 0.0 2.0 0.00 0.00 0.00 70 1017.4
20240526204425 67 22 0.0 2.0 0.00 0.00 0.00 70 1017.6
20240526204304 67 22 0.0 2.0 0.00 0.00 0.00 70 1017.4
20240526204226 67 22 0.0 2.0 0.00 0.00 0.00 70 1017.5
20240526204125 67 22 0.0 2.0 0.00 0.00 0.00 70 1017.4
20240526204004 67 25 0.0 2.0 0.00 0.00 0.00 70 1017.4
20240526203925 67 28 0.0 2.0 0.00 0.00 0.00 70 1017.3
20240526203804 67 31 0.0 2.0 0.00 0.00 0.00 70 1017.1
20240526203704 67 31 0.0 2.0 0.00 0.00 0.00 70 1017.4
20240526203605 67 30 0.0 2.0 0.00 0.00 0.00 70 1017.4
20240526203504 67 29 0.0 2.0 0.00 0.00 0.00 70 1017.5
20240526203404 67 29 0.0 2.0 0.00 0.00 0.00 70 1017.6
20240526203304 67 29 0.0 2.0 0.00 0.00 0.00 70 1017.6
20240526203204 67 29 1.0 2.0 0.00 0.00 0.00 70 1017.2
20240526203104 67 29 1.0 2.0 0.00 0.00 0.00 70 1017.6
20240526203004 68 28 1.0 2.0 0.00 0.00 0.00 70 1017.3
20240526202904 68 27 1.0 2.0 0.00 0.00 0.00 69 1017.4
20240526202804 68 24 1.0 2.0 0.00 0.00 0.00 69 1017.4
20240526202704 68 22 2.0 2.0 0.00 0.00 0.00 69 1017.3
20240526202625 68 22 2.0 2.0 0.00 0.00 0.00 69 1017.4
20240526202504 68 22 1.0 2.0 0.00 0.00 0.00 69 1017.2
20240526202405 68 22 0.0 2.0 0.00 0.00 0.00 69 1017.5
20240526202304 68 22 0.0 2.0 0.00 0.00 0.00 69 1017.4
20240526202204 68 22 0.0 2.0 0.00 0.00 0.00 69 1017.3
20240526202104 68 22 0.0 2.0 0.00 0.00 0.00 69 1017.3
20240526202004 68 22 0.0 2.0 0.00 0.00 0.00 69 1017.4
20240526201904 68 22 0.0 2.0 0.00 0.00 0.00 69 1017.4
20240526201825 68 22 0.0 2.0 0.00 0.00 0.00 69 1017.4
20240526201704 68 22 0.0 2.0 0.00 0.00 0.00 68 1017.4
20240526201604 68 22 0.0 2.0 0.00 0.00 0.00 68 1017.3
20240526201504 68 22 0.0 2.0 0.00 0.00 0.00 68 1017.5
20240526201404 68 22 0.0 2.0 0.00 0.00 0.00 68 1017.3
20240526201304 68 22 0.0 2.0 0.00 0.00 0.00 68 1017.3
20240526201204 68 22 0.0 2.0 0.00 0.00 0.00 68 1017.3
20240526201104 68 22 0.0 2.0 0.00 0.00 0.00 67 1017.4
20240526201004 68 22 0.0 2.0 0.00 0.00 0.00 67 1017.4
20240526200904 68 22 0.0 2.0 0.00 0.00 0.00 67 1017.4
20240526200805 68 22 1.0 2.0 0.00 0.00 0.00 68 1017.6
20240526200704 68 22 1.0 2.0 0.00 0.00 0.00 68 1017.3
20240526200625 68 22 1.0 2.0 0.00 0.00 0.00 68 1017.3
20240526200505 68 22 1.0 2.0 0.00 0.00 0.00 68 1017.3
20240526200404 68 22 0.0 2.0 0.00 0.00 0.00 68 1017.5
20240526200325 68 22 0.0 2.0 0.00 0.00 0.00 68 1017.2
20240526200225 68 22 0.0 2.0 0.00 0.00 0.00 68 1017.2
20240526200104 68 22 0.0 2.0 0.00 0.00 0.00 68 1017.3
20240526200025 68 22 0.0 2.0 0.00 0.00 0.00 68 1017.2
20240526195904 68 22 0.0 2.0 0.00 0.00 0.00 68 1017.4
20240526195804 68 22 0.0 2.0 0.00 0.00 0.00 66 1017.1
20240526195704 68 22 0.0 2.0 0.00 0.00 0.00 67 1017.0
20240526195626 68 22 0.0 2.0 0.00 0.00 0.00 66 1017.3
20240526195504 68 22 0.0 2.0 0.00 0.00 0.00 66 1017.3
20240526195404 68 22 0.0 2.0 0.00 0.00 0.00 66 1017.3
20240526195304 68 22 0.0 2.0 0.00 0.00 0.00 66 1017.3
20240526195225 68 22 0.0 2.0 0.00 0.00 0.00 67 1017.2
20240526195104 68 22 0.0 2.0 0.00 0.00 0.00 67 1017.1
20240526195004 68 22 0.0 2.0 0.00 0.00 0.00 67 1017.0
20240526194904 68 22 0.0 2.0 0.00 0.00 0.00 67 1017.1
20240526194804 68 22 0.0 2.0 0.00 0.00 0.00 67 1017.2
20240526194704 68 22 1.0 2.0 0.00 0.00 0.00 67 1017.1
20240526194604 68 22 0.0 2.0 0.00 0.00 0.00 67 1017.1
20240526194505 69 22 0.0 2.0 0.00 0.00 0.00 67 1017.0
20240526194404 69 22 1.0 2.0 0.00 0.00 0.00 67 1017.1
20240526194305 69 22 1.0 2.0 0.00 0.00 0.00 67 1017.0
20240526194204 69 22 1.0 2.0 0.00 0.00 0.00 66 1017.1
20240526194104 69 22 1.0 2.0 0.00 0.00 0.00 66 1017.1
20240526194004 69 22 1.0 2.0 0.00 0.00 0.00 66 1017.1
20240526193904 69 22 1.0 2.0 0.00 0.00 0.00 66 1016.9
20240526193825 69 22 1.0 2.0 0.00 0.00 0.00 66 1017.2
20240526193704 69 22 0.0 2.0 0.00 0.00 0.00 65 1017.0
20240526193604 69 22 0.0 2.0 0.00 0.00 0.00 65 1016.8
20240526193504 69 22 0.0 2.0 0.00 0.00 0.00 65 1016.9
20240526193404 69 22 0.0 2.0 0.00 0.00 0.00 65 1016.8
20240526193304 69 22 1.0 2.0 0.00 0.00 0.00 64 1016.9
20240526193204 69 22 1.0 2.0 0.00 0.00 0.00 63 1016.9
20240526193104 69 22 2.0 2.0 0.00 0.00 0.00 65 1016.8
20240526193004 69 22 2.0 2.0 0.00 0.00 0.00 65 1017.0
20240526192904 69 22 2.0 2.0 0.00 0.00 0.00 65 1017.0
20240526192804 69 22 2.0 2.0 0.00 0.00 0.00 65 1016.7
20240526192726 70 22 1.0 2.0 0.00 0.00 0.00 65 1016.8
20240526192605 70 22 1.0 2.0 0.00 0.00 0.00 66 1017.0
20240526192504 70 22 1.0 2.0 0.00 0.00 0.00 66 1017.0
20240526192404 70 22 1.0 2.0 0.00 0.00 0.00 66 1017.1
20240526192304 70 22 1.0 2.0 0.00 0.00 0.00 66 1017.0
20240526192226 70 22 0.0 2.0 0.00 0.00 0.00 66 1016.9
20240526192125 70 22 0.0 2.0 0.00 0.00 0.00 65 1016.9
20240526192005 70 22 0.0 2.0 0.00 0.00 0.00 65 1016.9
20240526191904 70 22 0.0 2.0 0.00 0.00 0.00 65 1016.8
20240526191805 70 22 0.0 2.0 0.00 0.00 0.00 66 1017.0
20240526191704 70 22 0.0 2.0 0.00 0.00 0.00 66 1016.7
20240526191604 70 22 0.0 2.0 0.00 0.00 0.00 65 1016.9
20240526191504 70 22 1.0 2.0 0.00 0.00 0.00 65 1016.8
20240526191405 70 23 1.0 2.0 0.00 0.00 0.00 65 1016.8
20240526191304 70 26 1.0 2.0 0.00 0.00 0.00 65 1016.7
20240526191204 70 27 0.0 2.0 0.00 0.00 0.00 65 1016.8
20240526191111 70 29 0.0 2.0 0.00 0.00 0.00 65 1016.9
20240526191004 70 32 0.0 2.0 0.00 0.00 0.00 65 1016.7
20240526190905 70 34 0.0 2.0 0.00 0.00 0.00 64 1016.8
20240526190804 71 37 1.0 2.0 0.00 0.00 0.00 64 1016.9
20240526190704 71 38 0.0 2.0 0.00 0.00 0.00 64 1016.8
20240526190605 71 40 1.0 2.0 0.00 0.00 0.00 64 1017.0
20240526190504 71 42 1.0 2.0 0.00 0.00 0.00 64 1016.9
20240526190404 71 45 0.0 2.0 0.00 0.00 0.00 63 1016.9
20240526190304 71 45 0.0 2.0 0.00 0.00 0.00 63 1016.9
20240526190205 71 45 1.0 2.0 0.00 0.00 0.00 63 1016.9
20240526190126 71 45 1.0 2.0 0.00 0.00 0.00 63 1016.9
20240526190004 71 45 2.0 2.0 0.00 0.00 0.00 62 1016.9
20240526185904 71 45 2.0 2.0 0.00 0.00 0.00 62 1016.8
20240526185804 71 45 2.0 2.0 0.00 0.00 0.00 62 1016.8
20240526185725 71 50 2.0 2.0 0.00 0.00 0.00 62 1016.8
20240526185625 71 75 1.0 2.0 0.00 0.00 0.00 61 1016.9
20240526185525 71 101 1.0 2.0 0.00 0.00 0.00 61 1016.7
20240526185405 72 112 0.0 2.0 0.00 0.00 0.00 61 1016.7
20240526185304 72 112 0.0 2.0 0.00 0.00 0.00 61 1016.8
20240526185204 72 112 0.0 2.0 0.00 0.00 0.00 61 1016.7
20240526185105 72 113 0.0 2.0 0.00 0.00 0.00 60 1016.6
20240526185005 72 117 0.0 2.0 0.00 0.00 0.00 60 1016.9
20240526184904 72 119 0.0 2.0 0.00 0.00 0.00 60 1016.9
20240526184804 72 120 0.0 2.0 0.00 0.00 0.00 60 1016.6
20240526184704 72 115 1.0 2.0 0.00 0.00 0.00 59 1016.6
20240526184604 72 117 1.0 2.0 0.00 0.00 0.00 59 1016.8
20240526184525 72 118 1.0 2.0 0.00 0.00 0.00 59 1016.8
20240526184404 72 121 1.0 2.0 0.00 0.00 0.00 59 1016.6
20240526184304 72 123 1.0 2.0 0.00 0.00 0.00 59 1016.6
20240526184204 72 123 0.0 2.0 0.00 0.00 0.00 60 1016.6
20240526184104 72 123 0.0 2.0 0.00 0.00 0.00 60 1016.6
20240526184004 72 123 1.0 2.0 0.00 0.00 0.00 59 1016.6
20240526183904 73 123 0.0 2.0 0.00 0.00 0.00 59 1016.6
20240526183804 73 124 0.0 2.0 0.00 0.00 0.00 59 1016.7
20240526183704 73 131 0.0 2.0 0.00 0.00 0.00 58 1016.6
20240526183604 73 135 1.0 2.0 0.00 0.00 0.00 57 1016.7
20240526183504 73 135 0.0 2.0 0.00 0.00 0.00 57 1016.7
20240526183404 73 144 0.0 2.0 0.00 0.00 0.00 56 1016.6
20240526183304 73 156 0.0 2.0 0.00 0.00 0.00 56 1016.6
20240526183204 73 169 0.0 2.0 0.00 0.00 0.00 56 1016.8
20240526183104 73 180 0.0 2.0 0.00 0.00 0.00 55 1016.5
20240526183004 74 188 0.0 2.0 0.00 0.00 0.00 55 1016.9
20240526182904 74 186 1.0 2.0 0.00 0.00 0.00 54 1016.5
20240526182804 74 184 0.0 2.0 0.00 0.00 0.00 53 1016.6
20240526182725 74 169 0.0 2.0 0.00 0.00 0.00 53 1016.6
20240526182605 74 155 0.0 2.0 0.00 0.00 0.00 52 1016.6
20240526182504 74 145 0.0 2.0 0.00 0.00 0.00 52 1016.7
20240526182404 74 128 1.0 2.0 0.00 0.00 0.00 51 1016.6
20240526182304 74 109 1.0 2.0 0.00 0.00 0.00 51 1016.7
20240526182225 74 94 0.0 2.0 0.00 0.00 0.00 52 1016.7
20240526182104 74 73 1.0 2.0 0.00 0.00 0.00 53 1016.5
20240526182004 74 74 0.0 2.0 0.00 0.00 0.00 54 1016.6
20240526181925 74 76 0.0 2.0 0.00 0.00 0.00 54 1016.6
20240526181804 74 78 1.0 2.0 0.00 0.00 0.00 54 1016.6
20240526181704 74 78 0.0 2.0 0.00 0.00 0.00 53 1016.8
20240526181604 74 82 1.0 2.0 0.00 0.00 0.00 53 1016.6
20240526181504 74 88 1.0 2.0 0.00 0.00 0.00 53 1016.5
20240526181404 74 94 0.0 2.0 0.00 0.00 0.00 53 1016.5
20240526181304 74 94 2.0 2.0 0.00 0.00 0.00 53 1016.6
20240526181205 74 106 2.0 2.0 0.00 0.00 0.00 52 1016.6
20240526181104 74 116 2.0 2.0 0.00 0.00 0.00 53 1016.6
20240526181004 74 120 1.0 2.0 0.00 0.00 0.00 53 1016.6
20240526180904 74 120 2.0 2.0 0.00 0.00 0.00 52 1016.4
20240526180804 74 124 1.0 2.0 0.00 0.00 0.00 51 1016.4
20240526180704 74 124 1.0 2.0 0.00 0.00 0.00 51 1016.5
20240526180604 75 119 0.0 2.0 0.00 0.00 0.00 49 1016.6
20240526180504 75 116 0.0 2.0 0.00 0.00 0.00 49 1016.3
20240526180404 75 120 0.0 2.0 0.00 0.00 0.00 49 1016.4
20240526180304 75 126 0.0 2.0 0.00 0.00 0.00 49 1016.7
20240526180204 75 134 0.0 2.0 0.00 0.00 0.00 48 1016.3
20240526180104 75 146 0.0 2.0 0.00 0.00 0.00 48 1016.6
20240526180004 76 164 1.0 2.0 0.00 0.00 0.00 48 1016.5
20240526175904 76 183 1.0 2.0 0.00 0.00 0.00 48 1016.6
20240526175804 76 192 1.0 2.0 0.00 0.00 0.00 48 1016.5
20240526175704 76 187 1.0 2.0 0.00 0.00 0.00 48 1016.5
20240526175605 76 182 2.0 2.0 0.00 0.00 0.00 47 1016.5
20240526175504 76 183 1.0 2.0 0.00 0.00 0.00 47 1016.5
20240526175404 76 179 0.0 2.0 0.00 0.00 0.00 45 1016.5
20240526175304 76 165 0.0 2.0 0.00 0.00 0.00 45 1016.5
20240526175205 76 155 0.0 4.0 0.00 0.00 0.00 45 1016.5
20240526175104 76 146 0.0 4.0 0.00 0.00 0.00 45 1016.5
20240526175005 76 141 1.0 4.0 0.00 0.00 0.00 45 1016.6
20240526174925 76 138 1.0 4.0 0.00 0.00 0.00 45 1016.6
20240526174804 76 135 2.0 4.0 0.00 0.00 0.00 45 1016.5
20240526174705 76 139 2.0 4.0 0.00 0.00 0.00 45 1016.4
20240526174604 76 142 2.0 4.0 0.00 0.00 0.00 45 1016.6
20240526174504 76 146 2.0 4.0 0.00 0.00 0.00 45 1016.2
20240526174404 76 147 2.0 4.0 0.00 0.00 0.00 45 1016.5
20240526174304 76 147 2.0 4.0 0.00 0.00 0.00 47 1016.2
20240526174204 76 144 1.0 2.0 0.00 0.00 0.00 46 1016.3
20240526174104 76 144 1.0 2.0 0.00 0.00 0.00 45 1016.5
20240526174004 76 143 0.0 2.0 0.00 0.00 0.00 45 1016.3
20240526173904 76 141 0.0 2.0 0.00 0.00 0.00 45 1016.5
20240526173804 76 139 0.0 2.0 0.00 0.00 0.00 45 1016.4
20240526173705 76 138 1.0 2.0 0.00 0.00 0.00 45 1016.3
20240526173604 76 138 1.0 2.0 0.00 0.00 0.00 45 1016.5
20240526173504 76 136 1.0 2.0 0.00 0.00 0.00 45 1016.4
20240526173404 77 136 2.0 2.0 0.00 0.00 0.00 45 1016.3
20240526173304 77 137 2.0 2.0 0.00 0.00 0.00 45 1016.4
20240526173204 77 139 2.0 2.0 0.00 0.00 0.00 45 1016.4
20240526173104 77 142 2.0 2.0 0.00 0.00 0.00 45 1016.4
20240526173004 77 144 2.0 4.0 0.00 0.00 0.00 45 1016.5
20240526172904 77 143 2.0 4.0 0.00 0.00 0.00 46 1016.4
20240526172805 77 143 0.0 4.0 0.00 0.00 0.00 46 1016.3
20240526172725 77 142 0.0 4.0 0.00 0.00 0.00 46 1016.5
20240526172604 77 141 0.0 4.0 0.00 0.00 0.00 46 1016.3
20240526172504 77 142 0.0 4.0 0.00 0.00 0.00 46 1016.2
20240526172404 77 144 1.0 4.0 0.00 0.00 0.00 46 1016.3
20240526172304 77 144 0.0 4.0 0.00 0.00 0.00 45 1016.4
20240526172204 77 144 0.0 4.0 0.00 0.00 0.00 45 1016.3
20240526172104 77 139 0.0 4.0 0.00 0.00 0.00 45 1016.3
20240526172004 78 127 2.0 4.0 0.00 0.00 0.00 45 1016.2
20240526171904 78 127 2.0 4.0 0.00 0.00 0.00 45 1016.5
20240526171826 78 127 2.0 4.0 0.00 0.00 0.00 45 1016.1
20240526171725 78 132 2.0 4.0 0.00 0.00 0.00 45 1016.4
20240526171604 78 131 2.0 4.0 0.00 0.00 0.00 45 1016.5
20240526171504 78 119 2.0 4.0 0.00 0.00 0.00 45 1016.2
20240526171404 77 111 0.0 4.0 0.00 0.00 0.00 44 1016.4
20240526171304 77 109 0.0 4.0 0.00 0.00 0.00 44 1016.2
20240526171225 77 109 0.0 4.0 0.00 0.00 0.00 44 1016.2
20240526171104 78 107 2.0 4.0 0.00 0.00 0.00 44 1016.1
20240526171005 78 114 2.0 4.0 0.00 0.00 0.00 44 1016.1
20240526170926 78 110 2.0 4.0 0.00 0.00 0.00 44 1016.1
20240526170804 77 100 1.0 4.0 0.00 0.00 0.00 44 1016.1
20240526170704 77 103 1.0 4.0 0.00 0.00 0.00 44 1016.4
20240526170605 77 103 1.0 4.0 0.00 0.00 0.00 45 1016.1
20240526170505 77 104 2.0 4.0 0.00 0.00 0.00 45 1016.0
20240526170404 77 106 2.0 4.0 0.00 0.00 0.00 45 1016.1
20240526170304 77 109 1.0 4.0 0.00 0.00 0.00 45 1016.1
20240526170205 77 115 2.0 4.0 0.00 0.00 0.00 45 1016.1
20240526170105 77 121 2.0 4.0 0.00 0.00 0.00 45 1016.3
20240526170025 77 127 2.0 4.0 0.00 0.00 0.00 45 1016.1
20240526165904 77 134 2.0 4.0 0.00 0.00 0.00 45 1016.3
20240526165804 77 139 2.0 4.0 0.00 0.00 0.00 45 1016.3
20240526165704 77 137 0.0 4.0 0.00 0.00 0.00 45 1016.2
20240526165605 77 135 4.0 7.0 0.00 0.00 0.00 45 1016.2
20240526165504 77 136 4.0 7.0 0.00 0.00 0.00 45 1016.1
20240526165404 77 136 2.0 8.0 0.00 0.00 0.00 45 1016.2
20240526165304 77 136 2.0 8.0 0.00 0.00 0.00 45 1016.3
20240526165205 77 131 2.0 8.0 0.00 0.00 0.00 45 1016.2
20240526165104 77 129 3.0 8.0 0.00 0.00 0.00 45 1016.1
20240526165004 77 129 3.0 8.0 0.00 0.00 0.00 45 1016.2
20240526164905 77 131 3.0 8.0 0.00 0.00 0.00 45 1016.2
20240526164804 77 132 3.0 8.0 0.00 0.00 0.00 45 1016.0
20240526164704 77 132 3.0 8.0 0.00 0.00 0.00 45 1016.2
20240526164625 77 133 3.0 8.0 0.00 0.00 0.00 46 1016.3
20240526164525 77 139 3.0 8.0 0.00 0.00 0.00 46 1016.2
20240526164404 77 142 4.0 8.0 0.00 0.00 0.00 46 1016.3
20240526164304 78 144 2.0 6.0 0.00 0.00 0.00 46 1016.0
20240526164205 78 146 3.0 6.0 0.00 0.00 0.00 45 1016.2
20240526164104 78 148 3.0 6.0 0.00 0.00 0.00 45 1016.2
20240526164004 78 150 2.0 6.0 0.00 0.00 0.00 46 1016.2
20240526163904 78 153 2.0 6.0 0.00 0.00 0.00 46 1016.1
20240526163804 78 156 1.0 6.0 0.00 0.00 0.00 47 1016.2
20240526163704 78 164 1.0 6.0 0.00 0.00 0.00 47 1016.1
20240526163604 78 177 1.0 6.0 0.00 0.00 0.00 47 1016.3
20240526163504 78 202 4.0 6.0 0.00 0.00 0.00 47 1016.3
20240526163404 80 222 2.0 4.0 0.00 0.00 0.00 45 1016.1
20240526163304 80 212 2.0 6.0 0.00 0.00 0.00 45 1016.3
20240526163204 80 206 2.0 6.0 0.00 0.00 0.00 45 1016.0
20240526163104 80 204 2.0 6.0 0.00 0.00 0.00 45 1016.2
20240526163005 79 211 0.0 6.0 0.00 0.00 0.00 45 1016.1
20240526162904 79 191 0.0 6.0 0.00 0.00 0.00 45 1016.2
20240526162805 79 169 0.0 6.0 0.00 0.00 0.00 45 1016.1
20240526162704 79 154 2.0 6.0 0.00 0.00 0.00 45 1016.2
20240526162625 79 147 2.0 6.0 0.00 0.00 0.00 45 1016.3
20240526162525 79 138 2.0 6.0 0.00 0.00 0.00 46 1016.0
20240526162404 80 135 2.0 6.0 0.00 0.00 0.00 45 1016.3
20240526162304 80 136 3.0 6.0 0.00 0.00 0.00 45 1016.2
20240526162204 80 137 1.0 7.0 0.00 0.00 0.00 43 1016.1
20240526162105 80 138 1.0 7.0 0.00 0.00 0.00 43 1016.1
20240526162026 80 138 1.0 7.0 0.00 0.00 0.00 43 1016.1
20240526161904 78 140 2.0 7.0 0.00 0.00 0.00 45 1016.3
20240526161825 78 143 2.0 7.0 0.00 0.00 0.00 45 1015.9
20240526161705 78 137 2.0 7.0 0.00 0.00 0.00 45 1016.0
20240526161604 78 138 4.0 7.0 0.00 0.00 0.00 46 1016.2
20240526161504 78 140 2.0 7.0 0.00 0.00 0.00 44 1015.9
20240526161404 78 139 2.0 7.0 0.00 0.00 0.00 44 1016.2
20240526161305 78 138 1.0 7.0 0.00 0.00 0.00 45 1016.2
20240526161205 79 135 4.0 7.0 0.00 0.00 0.00 46 1016.0
20240526161104 79 132 4.0 7.0 0.00 0.00 0.00 45 1016.1
20240526161004 80 146 2.0 6.0 0.00 0.00 0.00 44 1016.0
20240526160904 80 147 2.0 6.0 0.00 0.00 0.00 44 1015.9
20240526160804 80 144 3.0 6.0 0.00 0.00 0.00 44 1015.9
20240526160704 81 151 1.0 4.0 0.00 0.00 0.00 43 1016.2
20240526160625 82 148 2.0 4.0 0.00 0.00 0.00 42 1016.0
20240526160504 82 118 0.0 4.0 0.00 0.00 0.00 41 1016.1
20240526160404 82 93 0.0 4.0 0.00 0.00 0.00 41 1016.0
20240526160304 82 111 0.0 4.0 0.00 0.00 0.00 41 1015.9
20240526160225 82 124 1.0 4.0 0.00 0.00 0.00 42 1016.0
20240526160104 81 188 2.0 6.0 0.00 0.00 0.00 42 1016.1
20240526160004 81 217 2.0 6.0 0.00 0.00 0.00 42 1015.9
20240526155905 81 194 2.0 6.0 0.00 0.00 0.00 42 1016.0
20240526155804 80 187 1.0 6.0 0.00 0.00 0.00 44 1016.2
20240526155704 80 199 1.0 6.0 0.00 0.00 0.00 44 1016.2
20240526155604 80 211 1.0 6.0 0.00 0.00 0.00 44 1016.0
20240526155504 81 206 2.0 6.0 0.00 0.00 0.00 44 1016.1
20240526155425 81 203 2.0 6.0 0.00 0.00 0.00 44 1016.2
20240526155304 81 213 4.0 6.0 0.00 0.00 0.00 43 1016.0
20240526155204 81 201 2.0 6.0 0.00 0.00 0.00 43 1016.3
20240526155126 81 194 1.0 4.0 0.00 0.00 0.00 42 1016.2
20240526155004 82 183 2.0 4.0 0.00 0.00 0.00 42 1016.2
20240526154904 82 185 2.0 4.0 0.00 0.00 0.00 42 1016.2
20240526154805 82 188 1.0 4.0 0.00 0.00 0.00 42 1016.3
20240526154704 81 184 1.0 6.0 0.00 0.00 0.00 42 1016.0
20240526154604 81 179 1.0 6.0 0.00 0.00 0.00 43 1016.2
20240526154505 81 179 2.0 6.0 0.00 0.00 0.00 42 1016.1
20240526154404 80 178 0.0 6.0 0.00 0.00 0.00 43 1016.2
20240526154304 80 173 0.0 7.0 0.00 0.00 0.00 43 1016.1
20240526154225 79 169 0.0 7.0 0.00 0.00 0.00 44 1016.1
20240526154104 78 163 1.0 7.0 0.00 0.00 0.00 45 1016.0
20240526154005 78 163 2.0 7.0 0.00 0.00 0.00 46 1016.3
20240526153904 78 160 2.0 7.0 0.00 0.00 0.00 46 1016.2
20240526153805 78 158 4.0 7.0 0.00 0.00 0.00 47 1016.1
20240526153704 78 156 4.0 7.0 0.00 0.00 0.00 47 1016.3
20240526153604 78 156 4.0 7.0 0.00 0.00 0.00 47 1016.2
20240526153504 78 152 4.0 7.0 0.00 0.00 0.00 47 1016.1
20240526153404 79 151 2.0 7.0 0.00 0.00 0.00 47 1016.2
20240526153304 79 149 4.0 7.0 0.00 0.00 0.00 46 1016.2
20240526153205 80 154 3.0 6.0 0.00 0.00 0.00 44 1015.9
20240526153104 80 159 3.0 8.0 0.00 0.00 0.00 44 1016.1
20240526153005 80 160 2.0 8.0 0.00 0.00 0.00 44 1015.9
20240526152925 80 161 2.0 8.0 0.00 0.00 0.00 44 1015.9
20240526152804 79 161 2.0 8.0 0.00 0.00 0.00 45 1016.1
20240526152704 79 159 2.0 8.0 0.00 0.00 0.00 45 1016.0
20240526152604 79 156 2.0 8.0 0.00 0.00 0.00 46 1016.0
20240526152504 79 154 2.0 8.0 0.00 0.00 0.00 46 1016.1
20240526152404 79 152 2.0 8.0 0.00 0.00 0.00 46 1016.2
20240526152325 79 151 3.0 8.0 0.00 0.00 0.00 46 1016.0
20240526152205 79 148 2.0 8.0 0.00 0.00 0.00 45 1016.1
20240526152104 79 146 4.0 8.0 0.00 0.00 0.00 46 1016.2
20240526152004 79 145 2.0 6.0 0.00 0.00 0.00 45 1016.0
20240526151904 79 146 2.0 6.0 0.00 0.00 0.00 45 1016.1
20240526151804 79 144 3.0 9.0 0.00 0.00 0.00 47 1016.1
20240526151704 80 143 4.0 9.0 0.00 0.00 0.00 46 1016.3
20240526151605 80 140 3.0 9.0 0.00 0.00 0.00 46 1016.0
20240526151526 80 139 1.0 9.0 0.00 0.00 0.00 44 1016.1
20240526151404 80 144 1.0 9.0 0.00 0.00 0.00 44 1016.2
20240526151304 80 147 1.0 9.0 0.00 0.00 0.00 44 1016.0
20240526151204 80 152 2.0 9.0 0.00 0.00 0.00 45 1016.1
20240526151125 79 148 2.0 9.0 0.00 0.00 0.00 46 1016.2
20240526151005 78 153 2.0 9.0 0.00 0.00 0.00 46 1016.1
20240526150925 78 155 2.0 9.0 0.00 0.00 0.00 46 1016.1
20240526150804 80 174 7.0 9.0 0.00 0.00 0.00 47 1016.1
20240526150704 80 218 7.0 9.0 0.00 0.00 0.00 47 1016.3
20240526150604 81 251 2.0 6.0 0.00 0.00 0.00 46 1016.2
20240526150504 80 265 1.0 6.0 0.00 0.00 0.00 44 1016.2
20240526150404 80 272 1.0 6.0 0.00 0.00 0.00 44 1015.9
20240526150304 80 268 1.0 6.0 0.00 0.00 0.00 44 1016.2
20240526150204 80 268 2.0 6.0 0.00 0.00 0.00 45 1016.1
20240526150104 80 268 2.0 6.0 0.00 0.00 0.00 45 1016.2
20240526150004 80 271 2.0 6.0 0.00 0.00 0.00 46 1016.2
20240526145904 80 272 4.0 7.0 0.00 0.00 0.00 46 1016.1
20240526145804 80 259 4.0 7.0 0.00 0.00 0.00 46 1016.2
20240526145704 80 245 4.0 7.0 0.00 0.00 0.00 46 1016.3
20240526145604 80 217 4.0 7.0 0.00 0.00 0.00 46 1016.2
20240526145504 80 200 4.0 7.0 0.00 0.00 0.00 46 1016.0
20240526145404 80 187 3.0 7.0 0.00 0.00 0.00 46 1016.2
20240526145326 80 183 3.0 7.0 0.00 0.00 0.00 46 1016.2
20240526145226 79 176 2.0 7.0 0.00 0.00 0.00 47 1016.1
20240526145104 79 169 2.0 7.0 0.00 0.00 0.00 47 1016.1
20240526145025 79 172 2.0 7.0 0.00 0.00 0.00 47 1016.2
20240526144904 80 186 4.0 7.0 0.00 0.00 0.00 46 1016.3
20240526144804 81 186 1.0 7.0 0.00 0.00 0.00 45 1016.3
20240526144704 81 179 2.0 8.0 0.00 0.00 0.00 46 1016.1
20240526144604 80 173 2.0 8.0 0.00 0.00 0.00 45 1016.1
20240526144525 80 171 2.0 8.0 0.00 0.00 0.00 45 1016.1
20240526144404 79 164 2.0 8.0 0.00 0.00 0.00 47 1016.3
20240526144304 79 156 2.0 8.0 0.00 0.00 0.00 47 1016.2
20240526144204 79 156 2.0 8.0 0.00 0.00 0.00 47 1016.1
20240526144125 79 157 2.0 8.0 0.00 0.00 0.00 47 1016.1
20240526144004 78 149 2.0 8.0 0.00 0.00 0.00 47 1016.2
20240526143905 78 145 2.0 8.0 0.00 0.00 0.00 48 1016.4
20240526143804 79 148 5.0 8.0 0.00 0.00 0.00 49 1016.4
20240526143704 79 145 5.0 8.0 0.00 0.00 0.00 49 1016.2
20240526143604 79 133 5.0 8.0 0.00 0.00 0.00 49 1016.4
20240526143504 80 128 4.0 8.0 0.00 0.00 0.00 47 1016.3
20240526143404 80 129 2.0 7.0 0.00 0.00 0.00 46 1016.3
20240526143305 80 136 2.0 7.0 0.00 0.00 0.00 46 1016.4
20240526143204 78 135 2.0 7.0 0.00 0.00 0.00 46 1016.3
20240526143104 78 132 2.0 7.0 0.00 0.00 0.00 46 1016.2
20240526143004 78 136 1.0 7.0 0.00 0.00 0.00 48 1016.5
20240526142904 78 138 2.0 7.0 0.00 0.00 0.00 48 1016.5
20240526142826 78 140 2.0 7.0 0.00 0.00 0.00 48 1016.3
20240526142704 79 152 2.0 7.0 0.00 0.00 0.00 49 1016.2
20240526142604 79 167 4.0 7.0 0.00 0.00 0.00 47 1016.1
20240526142504 79 170 2.0 7.0 0.00 0.00 0.00 47 1016.2
20240526142405 80 174 2.0 7.0 0.00 0.00 0.00 48 1016.3
20240526142305 80 175 4.0 7.0 0.00 0.00 0.00 48 1016.5
20240526142204 80 190 2.0 7.0 0.00 0.00 0.00 46 1016.4
20240526142104 80 177 2.0 4.0 0.00 0.00 0.00 46 1016.2
20240526142004 80 177 1.0 4.0 0.00 0.00 0.00 46 1016.3
20240526141904 80 182 1.0 7.0 0.00 0.00 0.00 46 1016.3
20240526141825 80 176 1.0 7.0 0.00 0.00 0.00 46 1016.2
20240526141725 80 165 3.0 7.0 0.00 0.00 0.00 48 1016.2
20240526141605 80 151 3.0 7.0 0.00 0.00 0.00 46 1016.4
20240526141504 80 154 2.0 7.0 0.00 0.00 0.00 45 1016.4
20240526141425 80 161 1.0 7.0 0.00 0.00 0.00 46 1016.2
20240526141305 79 177 2.0 7.0 0.00 0.00 0.00 46 1016.2
20240526141204 79 172 2.0 8.0 0.00 0.00 0.00 47 1016.6
20240526141104 79 176 3.0 8.0 0.00 0.00 0.00 47 1016.4
20240526141004 78 177 2.0 8.0 0.00 0.00 0.00 49 1016.3
20240526140904 78 166 5.0 8.0 0.00 0.00 0.00 49 1016.4
20240526140805 78 177 2.0 8.0 0.00 0.00 0.00 48 1016.4
20240526140704 78 186 2.0 8.0 0.00 0.00 0.00 49 1016.2
20240526140604 78 190 3.0 8.0 0.00 0.00 0.00 48 1016.5
20240526140504 78 202 4.0 8.0 0.00 0.00 0.00 51 1016.4
20240526140405 78 201 4.0 8.0 0.00 0.00 0.00 51 1016.4
20240526140304 78 175 4.0 8.0 0.00 0.00 0.00 51 1016.3
20240526140204 79 156 2.0 7.0 0.00 0.00 0.00 47 1016.6
20240526140104 79 145 2.0 7.0 0.00 0.00 0.00 47 1016.5
20240526140004 79 144 4.0 7.0 0.00 0.00 0.00 48 1016.3
20240526135904 79 144 2.0 8.0 0.00 0.00 0.00 46 1016.5
20240526135804 79 139 2.0 8.0 0.00 0.00 0.00 47 1016.4
20240526135704 78 132 2.0 8.0 0.00 0.00 0.00 48 1016.4
20240526135604 78 138 3.0 8.0 0.00 0.00 0.00 48 1016.4
20240526135505 77 142 2.0 8.0 0.00 0.00 0.00 49 1016.3
20240526135426 77 140 2.0 8.0 0.00 0.00 0.00 49 1016.4
20240526135304 77 137 5.0 8.0 0.00 0.00 0.00 50 1016.4
20240526135204 77 146 1.0 8.0 0.00 0.00 0.00 49 1016.2
20240526135104 77 144 4.0 8.0 0.00 0.00 0.00 50 1016.3
20240526135004 79 139 5.0 8.0 0.00 0.00 0.00 50 1016.3
20240526134925 79 139 5.0 8.0 0.00 0.00 0.00 50 1016.3
20240526134804 78 139 2.0 9.0 0.00 0.00 0.00 48 1016.4
20240526134704 78 137 2.0 9.0 0.00 0.00 0.00 48 1016.5
20240526134625 78 135 1.0 9.0 0.00 0.00 0.00 47 1016.2
20240526134504 77 134 2.0 9.0 0.00 0.00 0.00 48 1016.4
20240526134404 76 133 4.0 9.0 0.00 0.00 0.00 50 1016.4
20240526134304 76 133 4.0 9.0 0.00 0.00 0.00 50 1016.2
20240526134204 76 129 2.0 9.0 0.00 0.00 0.00 50 1016.6
20240526134104 77 128 3.0 9.0 0.00 0.00 0.00 50 1016.4
20240526134005 78 129 4.0 9.0 0.00 0.00 0.00 50 1016.3
20240526133904 78 125 5.0 9.0 0.00 0.00 0.00 50 1016.5
20240526133804 78 118 1.0 6.0 0.00 0.00 0.00 48 1016.3
20240526133704 78 123 2.0 6.0 0.00 0.00 0.00 48 1016.4
20240526133605 78 129 1.0 6.0 0.00 0.00 0.00 47 1016.3
20240526133504 78 128 1.0 6.0 0.00 0.00 0.00 47 1016.5
20240526133404 78 130 3.0 6.0 0.00 0.00 0.00 49 1016.4
20240526133304 79 130 3.0 6.0 0.00 0.00 0.00 47 1016.5
20240526133225 79 130 1.0 6.0 0.00 0.00 0.00 47 1016.4
20240526133104 78 135 3.0 6.0 0.00 0.00 0.00 47 1016.4
20240526133004 79 139 2.0 6.0 0.00 0.00 0.00 47 1016.5
20240526132904 79 135 2.0 8.0 0.00 0.00 0.00 47 1016.4
20240526132804 79 122 2.0 8.0 0.00 0.00 0.00 47 1016.4
20240526132725 79 117 2.0 8.0 0.00 0.00 0.00 47 1016.3
20240526132604 79 109 4.0 8.0 0.00 0.00 0.00 47 1016.4
20240526132504 79 105 2.0 8.0 0.00 0.00 0.00 46 1016.5
20240526132405 79 104 2.0 8.0 0.00 0.00 0.00 47 1016.4
20240526132304 78 103 2.0 8.0 0.00 0.00 0.00 46 1016.6
20240526132204 78 102 2.0 8.0 0.00 0.00 0.00 47 1016.3
20240526132104 78 100 2.0 8.0 0.00 0.00 0.00 47 1016.5
20240526132005 79 101 2.0 8.0 0.00 0.00 0.00 47 1016.4
20240526131905 79 113 4.0 8.0 0.00 0.00 0.00 46 1016.5
20240526131804 79 140 3.0 6.0 0.00 0.00 0.00 45 1016.6
20240526131725 79 148 3.0 6.0 0.00 0.00 0.00 45 1016.6
20240526131625 79 155 0.0 4.0 0.00 0.00 0.00 44 1016.5
20240526131525 79 155 1.0 4.0 0.00 0.00 0.00 45 1016.4
20240526131405 79 152 1.0 4.0 0.00 0.00 0.00 46 1016.7
20240526131304 79 148 2.0 4.0 0.00 0.00 0.00 45 1016.8
20240526131205 79 144 2.0 4.0 0.00 0.00 0.00 46 1016.6
20240526131104 79 116 2.0 7.0 0.00 0.00 0.00 44 1016.6
20240526131005 79 80 2.0 7.0 0.00 0.00 0.00 44 1016.6
20240526130904 79 80 0.0 7.0 0.00 0.00 0.00 44 1016.4
20240526130804 79 81 2.0 7.0 0.00 0.00 0.00 45 1016.6
20240526130704 79 75 3.0 7.0 0.00 0.00 0.00 47 1016.6
20240526130604 79 55 2.0 7.0 0.00 0.00 0.00 46 1016.7
20240526130504 79 39 1.0 7.0 0.00 0.00 0.00 45 1016.6
20240526130404 79 42 1.0 7.0 0.00 0.00 0.00 45 1016.7
20240526130304 79 67 1.0 7.0 0.00 0.00 0.00 45 1016.5
20240526130204 78 90 3.0 7.0 0.00 0.00 0.00 45 1016.7
20240526130104 78 125 3.0 7.0 0.00 0.00 0.00 45 1016.6
20240526130004 79 146 2.0 8.0 0.00 0.00 0.00 45 1016.5
20240526125926 79 147 3.0 8.0 0.00 0.00 0.00 45 1016.7
20240526125825 79 152 3.0 8.0 0.00 0.00 0.00 45 1016.7
20240526125704 78 164 2.0 8.0 0.00 0.00 0.00 46 1016.7
20240526125625 78 163 2.0 8.0 0.00 0.00 0.00 46 1016.6
20240526125504 78 161 2.0 8.0 0.00 0.00 0.00 46 1016.7
20240526125404 77 166 4.0 8.0 0.00 0.00 0.00 47 1016.7
20240526125304 77 191 2.0 8.0 0.00 0.00 0.00 47 1016.6
20240526125205 77 207 2.0 8.0 0.00 0.00 0.00 47 1016.9
20240526125104 79 224 2.0 8.0 0.00 0.00 0.00 48 1016.8
20240526125004 79 246 2.0 4.0 0.00 0.00 0.00 44 1016.7
20240526124904 79 247 2.0 4.0 0.00 0.00 0.00 44 1016.6
20240526124804 79 241 1.0 4.0 0.00 0.00 0.00 44 1016.7
20240526124704 79 233 2.0 4.0 0.00 0.00 0.00 43 1016.7
20240526124604 81 202 2.0 6.0 0.00 0.00 0.00 41 1016.6
20240526124504 81 186 2.0 6.0 0.00 0.00 0.00 40 1016.8
20240526124405 81 175 1.0 6.0 0.00 0.00 0.00 39 1016.7
20240526124325 80 169 1.0 6.0 0.00 0.00 0.00 40 1016.9
20240526124204 80 160 1.0 6.0 0.00 0.00 0.00 41 1016.7
20240526124104 79 156 1.0 6.0 0.00 0.00 0.00 43 1016.8
20240526124004 79 154 1.0 6.0 0.00 0.00 0.00 44 1016.8
20240526123904 78 152 1.0 6.0 0.00 0.00 0.00 44 1016.9
20240526123804 78 151 2.0 6.0 0.00 0.00 0.00 46 1016.9
20240526123704 78 148 2.0 6.0 0.00 0.00 0.00 45 1017.1
20240526123604 78 154 2.0 6.0 0.00 0.00 0.00 46 1016.9
20240526123504 79 158 3.0 6.0 0.00 0.00 0.00 46 1016.8
20240526123404 79 155 3.0 6.0 0.00 0.00 0.00 45 1016.9
20240526123325 79 153 3.0 6.0 0.00 0.00 0.00 45 1016.9
20240526123204 79 152 2.0 4.0 0.00 0.00 0.00 45 1016.7
20240526123104 79 147 1.0 7.0 0.00 0.00 0.00 45 1016.8
20240526123005 78 135 1.0 7.0 0.00 0.00 0.00 46 1016.9
20240526122904 78 136 1.0 7.0 0.00 0.00 0.00 45 1016.8
20240526122804 78 128 2.0 7.0 0.00 0.00 0.00 45 1016.9
20240526122704 77 125 2.0 7.0 0.00 0.00 0.00 46 1016.9
20240526122604 76 120 2.0 7.0 0.00 0.00 0.00 49 1016.7
20240526122505 76 115 2.0 7.0 0.00 0.00 0.00 50 1016.8
20240526122403 76 104 2.0 7.0 0.00 0.00 0.00 48 1017.1
20240526122304 76 90 2.0 7.0 0.00 0.00 0.00 48 1016.9
20240526122204 76 78 2.0 7.0 0.00 0.00 0.00 48 1016.7
20240526122104 76 74 5.0 7.0 0.00 0.00 0.00 49 1016.7
20240526122004 76 77 2.0 7.0 0.00 0.00 0.00 48 1016.8
20240526121905 75 79 2.0 7.0 0.00 0.00 0.00 49 1016.8
20240526121804 75 80 2.0 7.0 0.00 0.00 0.00 49 1017.1
20240526121704 75 75 2.0 7.0 0.00 0.00 0.00 50 1017.0
20240526121604 75 66 2.0 7.0 0.00 0.00 0.00 50 1017.0
20240526121504 75 60 2.0 7.0 0.00 0.00 0.00 50 1017.0
20240526121404 76 67 3.0 7.0 0.00 0.00 0.00 50 1017.0
20240526121304 76 78 2.0 7.0 0.00 0.00 0.00 49 1017.2
20240526121204 76 96 2.0 7.0 0.00 0.00 0.00 50 1017.1
20240526121104 78 106 4.0 7.0 0.00 0.00 0.00 51 1017.0
20240526121004 78 111 2.0 7.0 0.00 0.00 0.00 46 1017.1
20240526120903 78 107 2.0 7.0 0.00 0.00 0.00 46 1017.1
20240526120804 77 126 1.0 7.0 0.00 0.00 0.00 45 1017.0
20240526120725 77 139 1.0 7.0 0.00 0.00 0.00 48 1017.0
20240526120605 77 148 2.0 7.0 0.00 0.00 0.00 49 1017.2
20240526120504 78 152 3.0 7.0 0.00 0.00 0.00 49 1017.2
20240526120404 78 153 4.0 7.0 0.00 0.00 0.00 48 1017.1
20240526120304 79 151 1.0 4.0 0.00 0.00 0.00 47 1017.2
20240526120205 78 141 2.0 6.0 0.00 0.00 0.00 46 1017.2
20240526120104 78 137 2.0 6.0 0.00 0.00 0.00 46 1017.1
20240526120004 78 133 1.0 6.0 0.00 0.00 0.00 45 1017.1
20240526115903 78 132 1.0 6.0 0.00 0.00 0.00 46 1017.1
20240526115804 77 130 1.0 6.0 0.00 0.00 0.00 46 1017.0
20240526115725 77 130 1.0 6.0 0.00 0.00 0.00 46 1017.0
20240526115625 76 127 2.0 6.0 0.00 0.00 0.00 46 1017.3
20240526115504 77 132 2.0 6.0 0.00 0.00 0.00 49 1017.1
20240526115404 77 140 2.0 6.0 0.00 0.00 0.00 49 1017.2
20240526115304 77 145 2.0 6.0 0.00 0.00 0.00 49 1017.2
20240526115204 77 154 4.0 6.0 0.00 0.00 0.00 49 1017.0
20240526115104 77 155 3.0 7.0 0.00 0.00 0.00 47 1017.1
20240526115005 77 154 2.0 7.0 0.00 0.00 0.00 47 1017.2
20240526114926 77 152 2.0 7.0 0.00 0.00 0.00 47 1017.2
20240526114804 76 147 1.0 7.0 0.00 0.00 0.00 49 1017.3
20240526114704 76 141 2.0 7.0 0.00 0.00 0.00 49 1017.1
20240526114625 76 138 1.0 7.0 0.00 0.00 0.00 50 1017.5
20240526114504 76 134 3.0 7.0 0.00 0.00 0.00 51 1017.3
20240526114404 76 121 3.0 7.0 0.00 0.00 0.00 51 1017.3
20240526114304 76 107 3.0 7.0 0.00 0.00 0.00 51 1017.2
20240526114204 75 95 4.0 7.0 0.00 0.00 0.00 52 1017.1
20240526114104 75 88 2.0 4.0 0.00 0.00 0.00 51 1017.3
20240526114003 75 93 2.0 4.0 0.00 0.00 0.00 52 1017.2
20240526113903 75 98 2.0 4.0 0.00 0.00 0.00 52 1017.1
20240526113803 77 103 2.0 4.0 0.00 0.00 0.00 51 1017.4
20240526113724 77 107 2.0 4.0 0.00 0.00 0.00 51 1017.4
20240526113604 78 104 3.0 4.0 0.00 0.00 0.00 50 1017.3
20240526113504 78 102 2.0 4.0 0.00 0.00 0.00 48 1017.4
20240526113404 78 118 2.0 4.0 0.00 0.00 0.00 48 1017.4
20240526113326 78 123 2.0 4.0 0.00 0.00 0.00 48 1017.4
20240526113204 78 134 1.0 4.0 0.00 0.00 0.00 48 1017.3
20240526113104 78 131 2.0 4.0 0.00 0.00 0.00 48 1017.4
20240526113004 78 142 2.0 4.0 0.00 0.00 0.00 49 1017.2
20240526112905 78 144 2.0 4.0 0.00 0.00 0.00 48 1017.2
20240526112804 78 143 2.0 4.0 0.00 0.00 0.00 48 1017.3
20240526112705 78 140 1.0 4.0 0.00 0.00 0.00 48 1017.5
20240526112603 76 140 0.0 4.0 0.00 0.00 0.00 49 1017.5
20240526112505 76 136 0.0 7.0 0.00 0.00 0.00 49 1017.3
20240526112404 76 135 1.0 7.0 0.00 0.00 0.00 50 1017.4
20240526112303 76 136 2.0 7.0 0.00 0.00 0.00 51 1017.4
20240526112204 76 139 1.0 7.0 0.00 0.00 0.00 50 1017.5
20240526112105 76 143 2.0 7.0 0.00 0.00 0.00 49 1017.3
20240526112005 76 134 2.0 7.0 0.00 0.00 0.00 49 1017.7
20240526111905 76 131 2.0 7.0 0.00 0.00 0.00 49 1017.5
20240526111805 76 130 2.0 7.0 0.00 0.00 0.00 51 1017.5
20240526111725 76 131 2.0 7.0 0.00 0.00 0.00 51 1017.5
20240526111605 77 133 2.0 7.0 0.00 0.00 0.00 52 1017.4
20240526111504 77 137 4.0 7.0 0.00 0.00 0.00 50 1017.3
20240526111404 77 136 1.0 4.0 0.00 0.00 0.00 49 1017.4
20240526111325 77 141 1.0 4.0 0.00 0.00 0.00 49 1017.4
20240526111225 76 154 2.0 4.0 0.00 0.00 0.00 49 1017.3
20240526111105 76 152 2.0 4.0 0.00 0.00 0.00 50 1017.5
20240526111005 76 159 2.0 4.0 0.00 0.00 0.00 51 1017.4
20240526110904 76 163 2.0 4.0 0.00 0.00 0.00 51 1017.4
20240526110804 76 173 2.0 4.0 0.00 0.00 0.00 51 1017.7
20240526110704 77 171 2.0 7.0 0.00 0.00 0.00 50 1017.5
20240526110605 77 161 1.0 7.0 0.00 0.00 0.00 50 1017.4
20240526110505 77 161 2.0 7.0 0.00 0.00 0.00 49 1017.7
20240526110404 77 159 1.0 7.0 0.00 0.00 0.00 48 1017.5
20240526110305 77 152 0.0 8.0 0.00 0.00 0.00 49 1017.5
20240526110204 76 144 1.0 8.0 0.00 0.00 0.00 49 1017.4
20240526110125 76 142 1.0 11.0 0.00 0.00 0.00 49 1017.4
20240526110025 74 140 2.0 11.0 0.00 0.00 0.00 51 1017.3
20240526105905 74 139 1.0 11.0 0.00 0.00 0.00 53 1017.3
20240526105803 72 135 4.0 11.0 0.00 0.00 0.00 56 1017.3
20240526105704 72 132 5.0 11.0 0.00 0.00 0.00 54 1017.7
20240526105605 72 132 3.0 11.0 0.00 0.00 0.00 54 1017.5
20240526105504 72 132 4.0 11.0 0.00 0.00 0.00 57 1017.4
20240526105404 74 130 6.0 11.0 0.00 0.00 0.00 55 1017.4
20240526105304 74 126 4.0 11.0 0.00 0.00 0.00 54 1017.4
20240526105204 74 125 6.0 11.0 0.00 0.00 0.00 54 1017.5
20240526105103 74 129 5.0 11.0 0.00 0.00 0.00 52 1017.3
20240526105004 74 132 5.0 8.0 0.00 0.00 0.00 52 1017.5
20240526104905 74 136 5.0 8.0 0.00 0.00 0.00 52 1017.4
20240526104804 75 149 4.0 6.0 0.00 0.00 0.00 52 1017.4
20240526104704 76 159 4.0 6.0 0.00 0.00 0.00 51 1017.4
20240526104604 76 174 4.0 6.0 0.00 0.00 0.00 51 1017.7
20240526104526 76 182 4.0 6.0 0.00 0.00 0.00 51 1017.7
20240526104403 76 204 3.0 6.0 0.00 0.00 0.00 49 1017.5
20240526104304 76 224 2.0 6.0 0.00 0.00 0.00 48 1017.7
20240526104204 76 220 2.0 6.0 0.00 0.00 0.00 50 1017.5
20240526104104 76 212 3.0 6.0 0.00 0.00 0.00 49 1017.5
20240526104004 76 205 2.0 6.0 0.00 0.00 0.00 48 1017.6
20240526103904 76 191 2.0 6.0 0.00 0.00 0.00 48 1017.6
20240526103804 77 173 2.0 6.0 0.00 0.00 0.00 50 1017.6
20240526103704 77 178 3.0 6.0 0.00 0.00 0.00 50 1017.8
20240526103604 77 197 3.0 6.0 0.00 0.00 0.00 48 1017.5
20240526103525 77 199 2.0 6.0 0.00 0.00 0.00 47 1017.6
20240526103404 77 194 2.0 4.0 0.00 0.00 0.00 47 1017.6
20240526103305 77 166 2.0 4.0 0.00 0.00 0.00 46 1017.3
20240526103203 78 180 2.0 4.0 0.00 0.00 0.00 47 1017.5
20240526103103 78 179 3.0 4.0 0.00 0.00 0.00 47 1017.5
20240526103003 78 147 1.0 7.0 0.00 0.00 0.00 47 1017.6
20240526102904 77 137 2.0 7.0 0.00 0.00 0.00 47 1017.5
20240526102804 76 129 2.0 7.0 0.00 0.00 0.00 47 1017.4
20240526102704 76 127 0.0 7.0 0.00 0.00 0.00 49 1017.4
20240526102605 74 130 1.0 7.0 0.00 0.00 0.00 51 1017.7
20240526102504 74 135 2.0 7.0 0.00 0.00 0.00 52 1017.4
20240526102426 74 150 2.0 7.0 0.00 0.00 0.00 52 1017.6
20240526102325 73 171 1.0 7.0 0.00 0.00 0.00 52 1017.7
20240526102205 73 175 2.0 7.0 0.00 0.00 0.00 54 1017.6
20240526102104 74 184 3.0 7.0 0.00 0.00 0.00 55 1017.5
20240526102005 75 233 4.0 7.0 0.00 0.00 0.00 54 1017.5
20240526101905 75 270 3.0 7.0 0.00 0.00 0.00 52 1017.7
20240526101803 76 269 2.0 4.0 0.00 0.00 0.00 51 1017.7
20240526101703 75 271 2.0 4.0 0.00 0.00 0.00 50 1017.5
20240526101605 75 268 2.0 4.0 0.00 0.00 0.00 50 1017.5
20240526101524 75 265 2.0 6.0 0.00 0.00 0.00 50 1017.5
20240526101424 75 262 2.0 6.0 0.00 0.00 0.00 50 1017.6
20240526101304 75 251 1.0 6.0 0.00 0.00 0.00 51 1017.5
20240526101204 74 243 2.0 6.0 0.00 0.00 0.00 53 1017.5
20240526101104 74 229 2.0 6.0 0.00 0.00 0.00 51 1017.5
20240526101005 73 210 1.0 6.0 0.00 0.00 0.00 52 1017.2
20240526100904 73 198 2.0 6.0 0.00 0.00 0.00 52 1017.6
20240526100804 73 183 2.0 6.0 0.00 0.00 0.00 53 1017.3
20240526100705 73 171 2.0 6.0 0.00 0.00 0.00 53 1017.4
20240526100604 73 161 3.0 6.0 0.00 0.00 0.00 54 1017.4
20240526100504 73 154 3.0 6.0 0.00 0.00 0.00 53 1017.4
20240526100404 74 148 2.0 6.0 0.00 0.00 0.00 52 1017.3
20240526100303 74 147 3.0 6.0 0.00 0.00 0.00 54 1017.3
20240526100203 74 146 4.0 7.0 0.00 0.00 0.00 54 1017.5
20240526100124 74 149 4.0 7.0 0.00 0.00 0.00 54 1017.5
20240526100025 75 146 4.0 7.0 0.00 0.00 0.00 52 1017.5
20240526095904 75 142 4.0 11.0 0.00 0.00 0.00 52 1017.6
20240526095804 75 141 1.0 11.0 0.00 0.00 0.00 51 1017.5
20240526095705 75 144 0.0 11.0 0.00 0.00 0.00 51 1017.6
20240526095604 74 146 1.0 11.0 0.00 0.00 0.00 52 1017.5
20240526095525 71 145 2.0 11.0 0.00 0.00 0.00 57 1017.3
20240526095404 71 141 2.0 11.0 0.00 0.00 0.00 57 1017.5
20240526095304 71 139 2.0 11.0 0.00 0.00 0.00 57 1017.4
20240526095225 71 137 4.0 11.0 0.00 0.00 0.00 57 1017.6
20240526095104 71 137 1.0 11.0 0.00 0.00 0.00 58 1017.5
20240526095003 74 141 8.0 11.0 0.00 0.00 0.00 59 1017.5
20240526094903 74 140 8.0 11.0 0.00 0.00 0.00 57 1017.2
20240526094804 74 143 2.0 4.0 0.00 0.00 0.00 55 1017.4
20240526094726 73 145 2.0 4.0 0.00 0.00 0.00 54 1017.3
20240526094604 74 147 1.0 4.0 0.00 0.00 0.00 54 1017.4
20240526094503 74 142 1.0 4.0 0.00 0.00 0.00 54 1017.3
20240526094405 74 129 1.0 4.0 0.00 0.00 0.00 54 1017.3
20240526094303 74 120 1.0 7.0 0.00 0.00 0.00 54 1017.2
20240526094204 74 123 1.0 7.0 0.00 0.00 0.00 54 1017.3
20240526094105 74 123 2.0 7.0 0.00 0.00 0.00 55 1017.2
20240526094004 74 127 2.0 7.0 0.00 0.00 0.00 55 1017.4
20240526093903 74 132 2.0 7.0 0.00 0.00 0.00 55 1017.3
20240526093803 73 132 2.0 7.0 0.00 0.00 0.00 57 1017.4
20240526093703 72 130 2.0 7.0 0.00 0.00 0.00 57 1017.5
20240526093625 72 129 2.0 7.0 0.00 0.00 0.00 58 1017.5
20240526093504 72 131 2.0 7.0 0.00 0.00 0.00 57 1017.4
20240526093404 74 135 4.0 7.0 0.00 0.00 0.00 58 1017.4
20240526093304 74 136 2.0 7.0 0.00 0.00 0.00 56 1017.3
20240526093204 73 129 2.0 7.0 0.00 0.00 0.00 57 1017.3
20240526093103 73 131 2.0 7.0 0.00 0.00 0.00 56 1017.5
20240526093004 73 134 2.0 7.0 0.00 0.00 0.00 57 1017.3
20240526092904 73 137 2.0 7.0 0.00 0.00 0.00 57 1017.4
20240526092803 73 138 4.0 7.0 0.00 0.00 0.00 58 1017.3
20240526092704 73 150 4.0 7.0 0.00 0.00 0.00 58 1017.4
20240526092603 73 164 2.0 6.0 0.00 0.00 0.00 58 1017.4
20240526092503 73 179 2.0 6.0 0.00 0.00 0.00 58 1017.6
20240526092403 72 200 3.0 6.0 0.00 0.00 0.00 58 1017.3
20240526092304 72 212 2.0 6.0 0.00 0.00 0.00 58 1017.5
20240526092204 72 226 3.0 6.0 0.00 0.00 0.00 59 1017.5
20240526092104 72 250 2.0 6.0 0.00 0.00 0.00 60 1017.4
20240526092003 72 241 2.0 6.0 0.00 0.00 0.00 60 1017.5
20240526091903 72 216 1.0 6.0 0.00 0.00 0.00 59 1017.5
20240526091803 72 180 2.0 6.0 0.00 0.00 0.00 60 1017.4
20240526091725 72 141 2.0 6.0 0.00 0.00 0.00 60 1017.4
20240526091604 72 103 2.0 6.0 0.00 0.00 0.00 58 1017.5
20240526091504 72 95 2.0 6.0 0.00 0.00 0.00 59 1017.5
20240526091404 72 108 2.0 6.0 0.00 0.00 0.00 59 1017.4
20240526091305 72 107 2.0 6.0 0.00 0.00 0.00 60 1017.6
20240526091204 72 109 2.0 6.0 0.00 0.00 0.00 61 1017.5
20240526091103 72 121 2.0 6.0 0.00 0.00 0.00 60 1017.3
20240526091024 72 124 2.0 6.0 0.00 0.00 0.00 59 1017.4
20240526090904 72 128 2.0 6.0 0.00 0.00 0.00 59 1017.6
20240526090803 71 131 2.0 6.0 0.00 0.00 0.00 60 1017.4
20240526090703 71 155 2.0 6.0 0.00 0.00 0.00 60 1017.5
20240526090604 71 169 2.0 6.0 0.00 0.00 0.00 62 1017.3
20240526090504 73 173 2.0 6.0 0.00 0.00 0.00 62 1017.3
20240526090425 73 186 4.0 6.0 0.00 0.00 0.00 61 1017.5
20240526090304 74 203 2.0 4.0 0.00 0.00 0.00 58 1017.7
20240526090225 74 200 2.0 4.0 0.00 0.00 0.00 57 1017.5
20240526090104 74 189 2.0 4.0 0.00 0.00 0.00 57 1017.4
20240526090004 74 186 2.0 4.0 0.00 0.00 0.00 57 1017.5
20240526085904 74 175 2.0 4.0 0.00 0.00 0.00 57 1017.3
20240526085824 74 172 1.0 4.0 0.00 0.00 0.00 56 1017.4
20240526085704 74 157 2.0 4.0 0.00 0.00 0.00 56 1017.3
20240526085603 74 138 1.0 4.0 0.00 0.00 0.00 55 1017.6
20240526085524 73 131 1.0 4.0 0.00 0.00 0.00 56 1017.6
20240526085403 73 135 1.0 6.0 0.00 0.00 0.00 58 1017.4
20240526085304 73 135 1.0 6.0 0.00 0.00 0.00 58 1017.4
20240526085204 72 132 1.0 6.0 0.00 0.00 0.00 58 1017.4
20240526085104 72 133 1.0 6.0 0.00 0.00 0.00 59 1017.3
20240526085004 71 128 1.0 6.0 0.00 0.00 0.00 59 1017.4
20240526084905 71 124 1.0 6.0 0.00 0.00 0.00 59 1017.3
20240526084804 71 117 2.0 6.0 0.00 0.00 0.00 60 1017.6
20240526084704 72 111 2.0 6.0 0.00 0.00 0.00 62 1017.4
20240526084603 73 103 3.0 6.0 0.00 0.00 0.00 61 1017.3
20240526084505 73 95 3.0 6.0 0.00 0.00 0.00 59 1017.4
20240526084403 73 48 2.0 4.0 0.00 0.00 0.00 57 1017.3
20240526084304 73 52 1.0 4.0 0.00 0.00 0.00 58 1017.4
20240526084204 73 50 2.0 2.0 0.00 0.00 0.00 58 1017.4
20240526084104 73 46 0.0 2.0 0.00 0.00 0.00 58 1017.5
20240526084004 73 73 0.0 4.0 0.00 0.00 0.00 58 1017.3
20240526083903 72 83 1.0 4.0 0.00 0.00 0.00 56 1017.2
20240526083824 72 83 1.0 4.0 0.00 0.00 0.00 56 1017.6
20240526083703 71 84 1.0 4.0 0.00 0.00 0.00 57 1017.5
20240526083603 71 86 1.0 4.0 0.00 0.00 0.00 57 1017.3
20240526083504 71 82 0.0 4.0 0.00 0.00 0.00 59 1017.4
20240526083404 71 72 1.0 4.0 0.00 0.00 0.00 59 1017.4
20240526083304 71 62 2.0 4.0 0.00 0.00 0.00 60 1017.4
20240526083204 71 159 2.0 4.0 0.00 0.00 0.00 60 1017.5
20240526083104 71 200 2.0 4.0 0.00 0.00 0.00 60 1017.4
20240526083003 71 280 0.0 4.0 0.00 0.00 0.00 58 1017.4
20240526082904 71 292 0.0 4.0 0.00 0.00 0.00 59 1017.4
20240526082824 71 293 2.0 4.0 0.00 0.00 0.00 60 1017.5
20240526082704 71 84 2.0 4.0 0.00 0.00 0.00 60 1017.2
20240526082603 71 164 2.0 4.0 0.00 0.00 0.00 60 1017.4
20240526082503 71 142 1.0 4.0 0.00 0.00 0.00 61 1017.4
20240526082404 70 137 2.0 4.0 0.00 0.00 0.00 61 1017.4
20240526082303 70 120 2.0 4.0 0.00 0.00 0.00 61 1017.4
20240526082203 70 113 0.0 4.0 0.00 0.00 0.00 60 1017.3
20240526082103 69 119 1.0 4.0 0.00 0.00 0.00 61 1017.5
20240526082025 69 122 1.0 4.0 0.00 0.00 0.00 61 1017.4
20240526081925 69 130 2.0 4.0 0.00 0.00 0.00 62 1017.4
20240526081825 69 129 2.0 4.0 0.00 0.00 0.00 62 1017.4
20240526081705 70 144 2.0 4.0 0.00 0.00 0.00 63 1017.5
20240526081626 71 141 2.0 4.0 0.00 0.00 0.00 61 1017.6
20240526081503 71 143 2.0 4.0 0.00 0.00 0.00 60 1017.6
20240526081404 70 151 1.0 4.0 0.00 0.00 0.00 62 1017.5
20240526081303 70 150 2.0 4.0 0.00 0.00 0.00 61 1017.4
20240526081203 70 151 0.0 4.0 0.00 0.00 0.00 61 1017.5
20240526081124 71 149 2.0 4.0 0.00 0.00 0.00 61 1017.7
20240526081003 71 142 2.0 4.0 0.00 0.00 0.00 59 1017.5
20240526080903 71 123 2.0 4.0 0.00 0.00 0.00 59 1017.5
20240526080804 71 145 2.0 4.0 0.00 0.00 0.00 60 1017.7
20240526080725 71 146 1.0 4.0 0.00 0.00 0.00 60 1017.3
20240526080605 70 142 0.0 4.0 0.00 0.00 0.00 60 1017.7
20240526080503 70 141 1.0 4.0 0.00 0.00 0.00 61 1017.3
20240526080403 70 135 1.0 4.0 0.00 0.00 0.00 62 1017.3
20240526080303 70 136 2.0 4.0 0.00 0.00 0.00 61 1017.6
20240526080203 71 132 2.0 4.0 0.00 0.00 0.00 60 1017.5
20240526080104 71 128 2.0 4.0 0.00 0.00 0.00 61 1017.5
20240526080003 71 139 2.0 4.0 0.00 0.00 0.00 61 1017.5
20240526075903 71 158 2.0 4.0 0.00 0.00 0.00 60 1017.6
20240526075803 71 163 2.0 2.0 0.00 0.00 0.00 61 1017.6
20240526075704 71 165 2.0 2.0 0.00 0.00 0.00 59 1017.4
20240526075604 71 168 2.0 2.0 0.00 0.00 0.00 60 1017.4
20240526075526 71 171 2.0 2.0 0.00 0.00 0.00 60 1017.6
20240526075404 71 176 2.0 2.0 0.00 0.00 0.00 60 1017.4
20240526075303 71 179 1.0 2.0 0.00 0.00 0.00 59 1017.4
20240526075204 71 177 1.0 2.0 0.00 0.00 0.00 60 1017.7
20240526075105 71 181 0.0 2.0 0.00 0.00 0.00 59 1017.4
20240526075003 71 176 0.0 2.0 0.00 0.00 0.00 59 1017.5
20240526074903 71 167 1.0 2.0 0.00 0.00 0.00 59 1017.5
20240526074803 71 162 0.0 2.0 0.00 0.00 0.00 59 1017.4
20240526074705 71 156 1.0 2.0 0.00 0.00 0.00 60 1017.5
20240526074526 70 139 2.0 4.0 0.00 0.00 0.00 59 1017.2
20240526074403 70 143 2.0 4.0 0.00 0.00 0.00 59 1017.3
20240526074303 70 149 2.0 4.0 0.00 0.00 0.00 59 1017.3
20240526074225 70 154 2.0 4.0 0.00 0.00 0.00 59 1017.6
20240526074104 70 132 0.0 4.0 0.00 0.00 0.00 59 1017.5
20240526074025 70 108 0.0 4.0 0.00 0.00 0.00 60 1017.3
20240526073903 70 98 1.0 4.0 0.00 0.00 0.00 60 1017.5
20240526073804 69 89 1.0 4.0 0.00 0.00 0.00 60 1017.3
20240526073725 69 82 1.0 4.0 0.00 0.00 0.00 60 1017.3
20240526073603 69 67 2.0 4.0 0.00 0.00 0.00 60 1017.5
20240526073504 69 56 0.0 4.0 0.00 0.00 0.00 60 1017.4
20240526073403 68 54 1.0 4.0 0.00 0.00 0.00 61 1017.4
20240526073325 68 54 1.0 4.0 0.00 0.00 0.00 61 1017.4
20240526073204 68 51 1.0 4.0 0.00 0.00 0.00 61 1017.4
20240526073125 69 47 2.0 4.0 0.00 0.00 0.00 60 1017.4
20240526073025 69 47 2.0 4.0 0.00 0.00 0.00 60 1017.5
20240526072904 69 24 2.0 4.0 0.00 0.00 0.00 60 1017.2
20240526072825 70 12 1.0 4.0 0.00 0.00 0.00 60 1017.5
20240526072704 70 8 2.0 4.0 0.00 0.00 0.00 60 1017.5
20240526072625 70 1 2.0 4.0 0.00 0.00 0.00 59 1017.5
20240526072504 70 358 0.0 2.0 0.00 0.00 0.00 58 1017.6
20240526072403 70 8 0.0 2.0 0.00 0.00 0.00 58 1017.5
20240526072303 70 6 0.0 2.0 0.00 0.00 0.00 58 1017.5
20240526072203 69 351 0.0 2.0 0.00 0.00 0.00 59 1017.2
20240526072103 69 334 0.0 2.0 0.00 0.00 0.00 60 1017.6
20240526072003 69 345 1.0 2.0 0.00 0.00 0.00 60 1017.3
20240526071904 69 354 1.0 2.0 0.00 0.00 0.00 60 1017.4
20240526071804 69 345 2.0 2.0 0.00 0.00 0.00 59 1017.7
20240526071704 69 348 0.0 2.0 0.00 0.00 0.00 59 1017.5
20240526071604 69 332 0.0 2.0 0.00 0.00 0.00 60 1017.8
20240526071504 69 304 1.0 2.0 0.00 0.00 0.00 60 1017.6
20240526071403 69 276 0.0 2.0 0.00 0.00 0.00 60 1017.5
20240526071304 69 274 0.0 2.0 0.00 0.00 0.00 61 1017.5
20240526071225 69 263 1.0 2.0 0.00 0.00 0.00 61 1017.6
20240526071103 70 241 2.0 2.0 0.00 0.00 0.00 60 1017.6